FW6434 Weather Reports


time (UTC)temp
C
wind
direction
speed
KPH
gust
KPH
rain 1hr
cm
rain 24hr
cm
rain mn
cm
humidity
%
barometer
mb
20260905032530 15 204 0.0 4.8 0.00 0.00 0.00 95 1012.9
20260905032519 15 199 0.0 3.2 0.00 0.00 0.00 95 1012.4
20260905032515 16 198 0.0 1.6 0.00 0.00 0.00 94 1012.4
20260905032506 15 198 0.0 4.8 0.00 0.00 0.00 95 1012.7
20260905032450 15 203 0.0 4.8 0.00 0.00 0.00 95 1012.9
20260905032427 15 233 0.0 4.8 0.00 0.00 0.00 95 1013.2
20260905032411 15 211 1.6 4.8 0.00 0.00 0.00 95 1013.1
20260905032355 15 184 0.0 4.8 0.00 0.00 0.00 95 1013.1
20260905032339 15 212 0.0 3.2 0.00 0.00 0.00 95 1013.0
20260905032323 15 212 0.0 3.2 0.00 0.00 0.00 95 1012.9
20260905031616 15 206 0.0 3.2 0.00 0.00 0.00 95 1012.8
20260905031559 15 199 0.0 3.2 0.00 0.00 0.00 95 1012.6
20260905031543 15 204 0.0 3.2 0.00 0.00 0.00 95 1012.8
20260905031318 16 210 1.6 3.2 0.00 0.00 0.00 95 1012.7
20260905031302 16 216 0.0 3.2 0.00 0.00 0.00 95 1012.8
20260905031247 15 199 0.0 3.2 0.00 0.00 0.00 95 1012.8
20260905031231 15 199 0.0 3.2 0.00 0.00 0.00 95 1012.8
20260905031216 15 199 0.0 3.2 0.00 0.00 0.00 95 1012.9
20260905031150 15 212 0.0 3.2 0.00 0.00 0.00 95 1012.6
20260905030915 15 202 0.0 3.2 0.00 0.00 0.00 95 1012.7
20260905030859 15 203 0.0 3.2 0.00 0.00 0.00 95 1012.8
20260905030843 15 213 3.2 3.2 0.00 0.00 0.00 95 1012.8
20260905030820 15 200 0.0 3.2 0.00 0.00 0.00 95 1013.0
20260905030804 15 199 0.0 3.2 0.00 0.00 0.00 95 1012.8
20260905030748 15 199 0.0 3.2 0.00 0.00 0.00 95 1012.7
20260905030513 15 199 0.0 3.2 0.00 0.00 0.00 95 1012.5
20260905030012 15 203 0.0 3.2 0.00 0.00 0.00 95 1012.2
20260905025957 15 206 0.0 3.2 0.00 0.00 0.00 95 1012.3
20260905025721 15 204 0.0 1.6 0.00 0.00 0.00 95 1012.2
20260905025235 16 198 0.0 1.6 0.00 0.00 0.00 94 1012.5
20260905025219 16 197 0.0 1.6 0.00 0.00 0.00 94 1012.4
20260905024943 15 199 0.0 1.6 0.00 0.00 0.00 94 1012.4
20260905024714 15 197 0.0 1.6 0.00 0.00 0.00 94 1012.4
20260905024614 15 197 0.0 1.6 0.00 0.00 0.00 94 1012.7
20260905024514 15 210 0.0 1.6 0.00 0.00 0.00 94 1012.7
20260905024414 15 204 0.0 1.6 0.00 0.00 0.00 94 1012.7
20260905024313 15 203 0.0 3.2 0.00 0.00 0.00 94 1012.7
20260905024213 15 199 0.0 3.2 0.00 0.00 0.00 94 1012.5
20260905024113 15 202 0.0 3.2 0.00 0.00 0.00 94 1012.6
20260905024013 15 200 0.0 3.2 0.00 0.00 0.00 94 1012.4
20260905023913 15 200 0.0 3.2 0.00 0.00 0.00 94 1012.6
20260905023813 15 199 0.0 3.2 0.00 0.00 0.00 94 1012.7
20260905023714 15 199 0.0 3.2 0.00 0.00 0.00 94 1012.7
20260905023609 15 201 0.0 3.2 0.00 0.00 0.00 94 1012.9
20260905023509 15 185 0.0 3.2 0.00 0.00 0.00 94 1012.6
20260905023409 15 181 0.0 3.2 0.00 0.00 0.00 94 1012.7
20260905023352 15 199 0.0 3.2 0.00 0.00 0.00 94 1012.9
20260905023330 16 202 0.0 4.8 0.00 0.00 0.00 94 1012.8
20260905023010 15 196 0.0 4.8 0.00 0.00 0.00 94 1012.6
20260905022955 15 198 0.0 4.8 0.00 0.00 0.00 95 1012.7
20260905022938 15 190 0.0 4.8 0.00 0.00 0.00 95 1012.8
20260905022709 15 195 0.0 4.8 0.00 0.00 0.00 95 1012.5
20260905022609 15 204 1.6 4.8 0.00 0.00 0.00 95 1012.7
20260905022552 16 200 0.0 4.8 0.00 0.00 0.00 95 1012.5
20260905022543 15 212 0.0 4.8 0.00 0.00 0.00 95 1012.8
20260905022528 15 203 0.0 4.8 0.00 0.00 0.00 95 1012.8
20260905022512 15 195 0.0 3.2 0.00 0.00 0.00 95 1012.8
20260905022450 15 222 1.6 3.2 0.00 0.00 0.00 95 1012.6
20260905022434 16 198 0.0 1.6 0.00 0.00 0.00 95 1012.7
20260905022419 16 201 0.0 1.6 0.00 0.00 0.00 95 1012.9
20260905022403 16 202 0.0 4.8 0.00 0.00 0.00 95 1012.6
20260905021613 16 190 1.6 3.2 0.00 0.00 0.00 95 1013.0
20260905021609 16 202 0.0 4.8 0.00 0.00 0.00 95 1012.7
20260905021552 16 195 0.0 4.8 0.00 0.00 0.00 95 1012.8
20260905021536 16 199 0.0 4.8 0.00 0.00 0.00 95 1012.8
20260905021312 16 281 0.0 4.8 0.00 0.00 0.00 95 1012.9
20260905021247 15 200 0.0 4.8 0.00 0.00 0.00 95 1012.7
20260905021232 15 213 0.0 4.8 0.00 0.00 0.00 95 1012.7
20260905021215 16 166 0.0 4.8 0.00 0.00 0.00 95 1012.8
20260905021159 16 209 1.6 3.2 0.00 0.00 0.00 95 1012.8
20260905020919 16 190 1.6 3.2 0.00 0.00 0.00 95 1013.0
20260905020611 16 198 0.0 3.2 0.00 0.00 0.00 95 1013.1
20260905020513 16 199 0.0 4.8 0.00 0.00 0.00 95 1012.7
20260905020509 16 166 1.6 3.2 0.00 0.00 0.00 95 1013.1
20260905020458 16 190 0.0 1.6 0.00 0.00 0.00 95 1012.8
20260905020448 16 202 0.0 3.2 0.00 0.00 0.00 95 1012.8
20260905020432 16 192 0.0 3.2 0.00 0.00 0.00 95 1013.0
20260905020410 16 221 1.6 3.2 0.00 0.00 0.00 95 1012.9
20260905020143 16 190 0.0 3.2 0.00 0.00 0.00 95 1013.1
20260905020127 16 200 0.0 3.2 0.00 0.00 0.00 95 1012.9
20260905020112 16 194 0.0 3.2 0.00 0.00 0.00 95 1012.9
20260905020056 16 186 0.0 3.2 0.00 0.00 0.00 95 1012.9
20260905020032 16 200 0.0 3.2 0.00 0.00 0.00 95 1013.0
20260905020017 16 190 0.0 3.2 0.00 0.00 0.00 95 1012.6
20260905015520 16 192 0.0 1.6 0.00 0.00 0.00 95 1012.8
20260905015502 16 190 0.0 1.6 0.00 0.00 0.00 95 1012.8
20260905015237 16 198 0.0 1.6 0.00 0.00 0.00 95 1013.1
20260905015223 16 215 1.6 1.6 0.00 0.00 0.00 95 1012.8
20260905015207 16 204 0.0 1.6 0.00 0.00 0.00 95 1013.0
20260905015151 16 200 0.0 1.6 0.00 0.00 0.00 95 1013.0
20260905014922 16 192 0.0 1.6 0.00 0.00 0.00 95 1012.8
20260905014907 16 195 0.0 1.6 0.00 0.00 0.00 95 1013.0
20260905014850 16 188 0.0 1.6 0.00 0.00 0.00 95 1012.8
20260905014834 16 181 0.0 1.6 0.00 0.00 0.00 95 1012.7
20260905014818 16 211 0.0 1.6 0.00 0.00 0.00 95 1013.0
20260905014756 16 196 0.0 4.8 0.00 0.00 0.00 95 1012.9
20260905014741 16 196 0.0 4.8 0.00 0.00 0.00 95 1012.9
20260905014725 16 192 0.0 4.8 0.00 0.00 0.00 95 1012.7
20260905014710 16 197 0.0 4.8 0.00 0.00 0.00 95 1012.8
20260905014654 16 196 0.0 4.8 0.00 0.00 0.00 95 1012.6
20260905014205 16 192 0.0 4.8 0.00 0.00 0.00 95 1012.9
20260905013930 16 200 0.0 4.8 0.00 0.00 0.00 95 1012.4
20260905013645 16 199 0.0 1.6 0.00 0.00 0.00 95 1012.4
20260905013410 16 194 0.0 1.6 0.00 0.00 0.00 95 1012.2
20260905012904 16 199 0.0 0.0 0.00 0.00 0.00 95 1012.3
20260905012629 16 199 0.0 0.0 0.00 0.00 0.00 95 1012.2
20260905012350 16 198 0.0 0.0 0.00 0.00 0.00 95 1012.2
20260905012328 16 199 0.0 0.0 0.00 0.00 0.00 95 1012.3
20260905012009 16 196 0.0 0.0 0.00 0.00 0.00 95 1012.3
20260905011909 16 199 0.0 0.0 0.00 0.00 0.00 95 1012.2
20260905011810 16 198 0.0 1.6 0.00 0.00 0.00 94 1012.4
20260905011711 16 200 0.0 1.6 0.00 0.00 0.00 94 1012.3
20260905011644 16 223 0.0 1.6 0.00 0.00 0.00 94 1012.3
20260905011629 16 200 0.0 1.6 0.00 0.00 0.00 94 1012.6
20260905011310 16 198 0.0 1.6 0.00 0.00 0.00 94 1012.3
20260905011210 16 198 0.0 1.6 0.00 0.00 0.00 94 1012.2
20260905011110 16 202 0.0 1.6 0.00 0.00 0.00 94 1012.4
20260905011009 16 206 0.0 1.6 0.00 0.00 0.00 94 1012.4
20260905010945 16 193 0.0 1.6 0.00 0.00 0.00 94 1012.6
20260905010929 16 204 0.0 1.6 0.00 0.00 0.00 93 1012.5
20260905010905 16 197 0.0 1.6 0.00 0.00 0.00 93 1012.5
20260905010630 16 190 0.0 1.6 0.00 0.00 0.00 93 1012.4
20260905010309 16 198 0.0 1.6 0.00 0.00 0.00 93 1012.2
20260905010221 16 203 0.0 1.6 0.00 0.00 0.00 92 1012.6
20260905010145 16 188 0.0 1.6 0.00 0.00 0.00 92 1012.4
20260905010129 16 196 0.0 1.6 0.00 0.00 0.00 92 1012.6
20260905005810 16 196 0.0 3.2 0.00 0.00 0.00 92 1012.3
20260905005709 16 196 0.0 3.2 0.00 0.00 0.00 91 1012.3
20260905005609 16 198 0.0 3.2 0.00 0.00 0.00 91 1012.4
20260905005510 16 203 0.0 3.2 0.00 0.00 0.00 91 1012.6
20260905005409 16 194 0.0 3.2 0.00 0.00 0.00 91 1012.5
20260905005309 16 193 0.0 3.2 0.00 0.00 0.00 90 1012.4
20260905005222 16 181 0.0 3.2 0.00 0.00 0.00 90 1012.4
20260905005144 17 187 0.0 3.2 0.00 0.00 0.00 89 1012.6
20260905005129 17 200 0.0 3.2 0.00 0.00 0.00 89 1012.6
20260905004810 17 159 0.0 1.6 0.00 0.00 0.00 87 1012.3
20260905004707 17 184 0.0 0.0 0.00 0.00 0.00 87 1012.4
20260905004337 17 33 1.6 4.8 0.00 0.00 0.00 84 1012.6
20260905004324 17 209 1.6 3.2 0.00 0.00 0.00 84 1012.6
20260905004315 17 205 1.6 3.2 0.00 0.00 0.00 84 1012.7
20260905003953 17 221 1.6 3.2 0.00 0.00 0.00 83 1012.2
20260905003853 17 127 0.0 4.8 0.00 0.00 0.00 83 1012.1
20260905003828 17 202 0.0 4.8 0.00 0.00 0.00 82 1012.4
20260905003820 17 195 0.0 4.8 0.00 0.00 0.00 83 1012.2
20260905003807 17 190 0.0 4.8 0.00 0.00 0.00 83 1012.2
20260905003755 17 189 1.6 4.8 0.00 0.00 0.00 83 1012.0
20260905003739 17 165 0.0 4.8 0.00 0.00 0.00 83 1011.8
20260905003515 17 171 0.0 4.8 0.00 0.00 0.00 83 1012.0
20260905003459 17 191 1.6 4.8 0.00 0.00 0.00 82 1012.1
20260905003443 17 198 0.0 4.8 0.00 0.00 0.00 82 1012.4
20260905003153 17 193 0.0 4.8 0.00 0.00 0.00 82 1012.2
20260905003053 17 178 0.0 6.4 0.00 0.00 0.00 82 1012.1
20260905002953 17 192 0.0 9.7 0.00 0.00 0.00 82 1012.3
20260905002853 17 191 1.6 9.7 0.00 0.00 0.00 81 1012.0
20260905002753 17 216 1.6 9.7 0.00 0.00 0.00 81 1012.1
20260905002725 17 68 3.2 9.7 0.00 0.00 0.00 81 1012.1
20260905002653 18 200 3.2 9.7 0.00 0.00 0.00 81 1012.3
20260905002553 18 199 0.0 9.7 0.00 0.00 0.00 81 1012.2
20260905002453 18 196 0.0 9.7 0.00 0.00 0.00 81 1012.2
20260905002353 18 207 0.0 9.7 0.00 0.00 0.00 80 1012.2
20260905002327 18 150 1.6 9.7 0.00 0.00 0.00 80 1012.2
20260905002314 18 177 0.0 9.7 0.00 0.00 0.00 80 1012.2
20260905002306 18 211 3.2 9.7 0.00 0.00 0.00 80 1012.2
20260905002248 18 186 0.0 4.8 0.00 0.00 0.00 80 1012.0
20260905002233 18 200 0.0 4.8 0.00 0.00 0.00 80 1011.8
20260905001726 18 213 3.2 4.8 0.00 0.00 0.00 79 1011.7
20260905001653 18 211 0.0 4.8 0.00 0.00 0.00 79 1012.0
20260905001553 18 195 0.0 4.8 0.00 0.00 0.00 79 1011.6
20260905001453 18 146 1.6 4.8 0.00 0.00 0.00 79 1011.8
20260905001414 18 232 3.2 4.8 0.00 0.00 0.00 79 1011.7
20260905001358 18 151 3.2 4.8 0.00 0.00 0.00 79 1011.9
20260905001346 18 55 1.6 4.8 0.00 0.00 0.00 79 1011.9
20260905001336 18 206 1.6 4.8 0.00 0.00 0.00 78 1011.8
20260905001101 18 58 1.6 4.8 0.00 0.00 0.00 78 1012.1
20260905000741 18 147 0.0 4.8 0.00 0.00 0.00 78 1012.3
20260905000726 18 193 0.0 4.8 0.00 0.00 0.00 78 1012.3
20260905000643 18 177 1.6 6.4 0.00 0.00 0.00 78 1012.1
20260905000541 18 181 1.6 6.4 0.00 0.00 0.00 78 1012.1
20260905000441 18 202 0.0 6.4 0.00 0.00 0.00 77 1012.0
20260905000341 18 194 0.0 6.4 0.00 0.00 0.00 77 1011.9
20260905000241 18 273 0.0 6.4 0.00 0.00 0.00 77 1011.9
20260905000226 18 196 0.0 6.4 0.00 0.00 0.00 77 1011.9
20260905000142 18 196 0.0 6.4 0.00 0.00 0.00 77 1012.1
20260905000042 18 58 3.2 6.4 0.00 0.00 0.00 77 1011.9
20260904235942 18 198 0.0 6.4 0.00 0.00 0.00 77 1011.7
20260904235842 18 155 0.0 6.4 0.00 0.00 0.00 77 1011.8
20260904235724 18 65 4.8 6.4 0.00 0.00 0.00 77 1011.8
20260904235641 18 204 0.0 6.4 0.00 0.00 0.00 77 1011.9
20260904235541 18 196 0.0 6.4 0.00 0.00 0.00 77 1011.8
20260904235441 18 143 1.6 6.4 0.00 0.00 0.00 76 1011.9
20260904235342 18 173 1.6 6.4 0.00 0.00 0.00 76 1011.8
20260904235241 18 207 1.6 6.4 0.00 0.00 0.00 76 1012.1
20260904235224 18 217 1.6 6.4 0.00 0.00 0.00 76 1012.1
20260904235141 18 138 1.6 6.4 0.00 0.00 0.00 76 1011.9
20260904235041 18 67 3.2 6.4 0.00 0.00 0.00 76 1012.1
20260904235021 18 222 3.2 6.4 0.00 0.00 0.00 76 1011.8
20260904235013 18 185 1.6 6.4 0.00 0.00 0.00 76 1011.8
20260904234957 18 204 1.6 6.4 0.00 0.00 0.00 76 1011.8
20260904234942 18 212 1.6 6.4 0.00 0.00 0.00 76 1011.8
20260904234640 18 252 3.2 6.4 0.00 0.00 0.00 75 1011.9
20260904234540 18 199 3.2 6.4 0.00 0.00 0.00 76 1011.7
20260904234441 18 116 3.2 6.4 0.00 0.00 0.00 75 1011.6
20260904234340 18 100 0.0 4.8 0.00 0.00 0.00 75 1011.7
20260904234241 18 178 0.0 4.8 0.00 0.00 0.00 75 1011.6
20260904234224 18 193 1.6 4.8 0.00 0.00 0.00 75 1011.6
20260904234159 18 214 3.2 4.8 0.00 0.00 0.00 75 1011.4
20260904234143 18 189 0.0 3.2 0.00 0.00 0.00 75 1011.6
20260904234127 18 300 1.6 3.2 0.00 0.00 0.00 75 1011.5
20260904234112 18 191 0.0 3.2 0.00 0.00 0.00 75 1011.7
20260904234043 18 169 0.0 3.2 0.00 0.00 0.00 75 1011.9
20260904234031 18 202 1.6 3.2 0.00 0.00 0.00 75 1011.9
20260904233756 18 197 0.0 3.2 0.00 0.00 0.00 75 1011.8
20260904233740 18 206 0.0 3.2 0.00 0.00 0.00 75 1011.9
20260904233508 18 200 1.6 3.2 0.00 0.00 0.00 75 1011.8
20260904233238 18 148 1.6 3.2 0.00 0.00 0.00 75 1011.8
20260904233222 18 58 1.6 3.2 0.00 0.00 0.00 75 1011.7
20260904233205 18 157 0.0 3.2 0.00 0.00 0.00 75 1011.5
20260904233148 18 193 1.6 3.2 0.00 0.00 0.00 75 1011.9
20260904233136 18 109 0.0 3.2 0.00 0.00 0.00 75 1011.9
20260904232404 19 196 0.0 4.8 0.00 0.00 0.00 75 1011.4
20260904232357 18 199 0.0 3.2 0.00 0.00 0.00 75 1012.0
20260904232341 18 170 0.0 3.2 0.00 0.00 0.00 75 1011.8
20260904232329 18 199 0.0 3.2 0.00 0.00 0.00 75 1011.8
20260904232320 18 199 0.0 3.2 0.00 0.00 0.00 75 1011.8
20260904232056 18 201 0.0 3.2 0.00 0.00 0.00 75 1011.5
20260904232039 18 61 3.2 3.2 0.00 0.00 0.00 75 1011.7
20260904232024 19 207 0.0 4.8 0.00 0.00 0.00 75 1011.7
20260904232008 19 215 0.0 4.8 0.00 0.00 0.00 75 1011.4
20260904231739 19 188 0.0 4.8 0.00 0.00 0.00 75 1011.5
20260904231723 19 190 0.0 4.8 0.00 0.00 0.00 75 1011.6
20260904231448 19 188 0.0 4.8 0.00 0.00 0.00 75 1011.4
20260904231433 19 191 0.0 4.8 0.00 0.00 0.00 75 1011.3
20260904231419 19 194 0.0 4.8 0.00 0.00 0.00 75 1011.3
20260904231409 19 202 0.0 4.8 0.00 0.00 0.00 75 1011.4
20260904230828 19 208 1.6 4.8 0.00 0.00 0.00 75 1011.1
20260904230728 19 36 1.6 3.2 0.00 0.00 0.00 75 1011.3
20260904230712 19 173 1.6 3.2 0.00 0.00 0.00 75 1011.3
20260904230628 19 166 1.6 3.2 0.00 0.00 0.00 75 1011.3
20260904230528 19 194 1.6 3.2 0.00 0.00 0.00 75 1011.4
20260904230429 19 206 0.0 3.2 0.00 0.00 0.00 75 1011.2
20260904230328 19 126 0.0 3.2 0.00 0.00 0.00 75 1011.4
20260904230212 19 191 0.0 3.2 0.00 0.00 0.00 74 1011.5
20260904230134 19 203 0.0 3.2 0.00 0.00 0.00 74 1011.3
20260904230118 19 201 0.0 3.2 0.00 0.00 0.00 74 1011.2
20260904225929 19 190 0.0 3.2 0.00 0.00 0.00 74 1011.3
20260904225830 19 203 0.0 3.2 0.00 0.00 0.00 74 1011.3
20260904225712 19 203 0.0 3.2 0.00 0.00 0.00 74 1011.1
20260904225628 19 211 0.0 3.2 0.00 0.00 0.00 74 1011.3
20260904225529 19 197 0.0 3.2 0.00 0.00 0.00 74 1011.3
20260904225506 19 220 3.2 3.2 0.00 0.00 0.00 73 1011.2
20260904225450 19 205 1.6 3.2 0.00 0.00 0.00 73 1011.5
20260904225220 19 273 0.0 11.3 0.00 0.00 0.00 73 1011.3
20260904225215 19 195 0.0 3.2 0.00 0.00 0.00 73 1011.2
20260904225204 19 128 3.2 3.2 0.00 0.00 0.00 73 1011.2
20260904225149 19 184 1.6 9.7 0.00 0.00 0.00 73 1011.4
20260904225133 19 153 1.6 9.7 0.00 0.00 0.00 73 1011.3
20260904225118 19 157 1.6 9.7 0.00 0.00 0.00 73 1011.2
20260904225102 19 201 0.0 11.3 0.00 0.00 0.00 73 1011.3
20260904224528 19 201 0.0 16.1 0.00 0.00 0.00 73 1011.1
20260904224428 19 249 3.2 16.1 0.00 0.00 0.00 73 1011.1
20260904224328 19 206 1.6 16.1 0.00 0.00 0.00 74 1011.1
20260904224212 19 151 1.6 16.1 0.00 0.00 0.00 74 1011.2
20260904224128 19 74 3.2 16.1 0.00 0.00 0.00 74 1011.2
20260904224028 19 59 4.8 16.1 0.00 0.00 0.00 74 1010.9
20260904223930 19 197 1.6 16.1 0.00 0.00 0.00 75 1011.3
20260904223830 20 168 0.0 16.1 0.00 0.00 0.00 75 1011.0
20260904223728 20 248 4.8 16.1 0.00 0.00 0.00 77 1011.1
20260904223712 20 143 1.6 6.4 0.00 0.00 0.00 77 1011.1
20260904223628 20 27 3.2 6.4 0.00 0.00 0.00 77 1010.7
20260904223603 20 107 1.6 3.2 0.00 0.00 0.00 77 1010.8
20260904223554 20 326 3.2 4.8 0.00 0.00 0.00 77 1010.8
20260904223539 20 160 0.0 4.8 0.00 0.00 0.00 78 1011.1
20260904223523 20 139 1.6 4.8 0.00 0.00 0.00 77 1010.9
20260904223251 20 196 0.0 3.2 0.00 0.00 0.00 77 1011.0
20260904223240 20 207 1.6 3.2 0.00 0.00 0.00 77 1010.8
20260904223224 20 191 0.0 3.2 0.00 0.00 0.00 77 1010.9
20260904223208 20 256 0.0 3.2 0.00 0.00 0.00 77 1010.9
20260904222931 20 107 1.6 3.2 0.00 0.00 0.00 77 1010.8
20260904222628 20 109 0.0 3.2 0.00 0.00 0.00 77 1010.8
20260904222604 20 196 0.0 3.2 0.00 0.00 0.00 77 1010.8
20260904222548 20 237 1.6 3.2 0.00 0.00 0.00 77 1010.8
20260904222532 20 183 1.6 3.2 0.00 0.00 0.00 77 1010.6
20260904222300 20 200 0.0 3.2 0.00 0.00 0.00 76 1010.6
20260904222249 20 212 0.0 3.2 0.00 0.00 0.00 76 1010.6
20260904222003 20 143 0.0 3.2 0.00 0.00 0.00 77 1010.5
20260904221948 20 239 1.6 3.2 0.00 0.00 0.00 76 1010.4
20260904221712 20 73 0.0 3.2 0.00 0.00 0.00 76 1010.5
20260904221629 20 203 1.6 3.2 0.00 0.00 0.00 76 1010.4
20260904221604 20 207 1.6 3.2 0.00 0.00 0.00 76 1010.2
20260904221549 20 188 0.0 3.2 0.00 0.00 0.00 76 1010.6
20260904221229 20 199 0.0 3.2 0.00 0.00 0.00 76 1010.4
20260904221216 20 188 0.0 3.2 0.00 0.00 0.00 76 1010.4
20260904221206 21 200 1.6 3.2 0.00 0.00 0.00 76 1010.4
20260904221149 21 180 0.0 3.2 0.00 0.00 0.00 76 1010.5
20260904220914 21 192 0.0 3.2 0.00 0.00 0.00 77 1010.5
20260904220858 21 246 1.6 3.2 0.00 0.00 0.00 77 1010.2
20260904220845 21 103 1.6 3.2 0.00 0.00 0.00 77 1010.2
20260904220528 21 133 0.0 3.2 0.00 0.00 0.00 76 1010.2
20260904220510 21 197 0.0 6.4 0.00 0.00 0.00 76 1010.5
20260904220501 21 186 1.6 3.2 0.00 0.00 0.00 76 1010.2
20260904220446 21 212 1.6 6.4 0.00 0.00 0.00 76 1010.6
20260904220430 21 197 0.0 6.4 0.00 0.00 0.00 76 1010.5
20260904220128 21 180 0.0 6.4 0.00 0.00 0.00 76 1010.6
20260904220029 21 119 1.6 6.4 0.00 0.00 0.00 76 1010.2
20260904215928 21 199 0.0 6.4 0.00 0.00 0.00 76 1010.0
20260904215829 21 201 0.0 6.4 0.00 0.00 0.00 75 1010.4
20260904215728 21 196 1.6 6.4 0.00 0.00 0.00 75 1010.2
20260904215712 21 82 0.0 6.4 0.00 0.00 0.00 75 1010.2
20260904215628 21 194 0.0 6.4 0.00 0.00 0.00 75 1010.1
20260904215529 21 192 1.6 6.4 0.00 0.00 0.00 75 1009.9
20260904215428 21 183 0.0 6.4 0.00 0.00 0.00 75 1009.9
20260904215403 21 28 1.6 4.8 0.00 0.00 0.00 75 1010.0
20260904215347 21 78 1.6 4.8 0.00 0.00 0.00 75 1009.8
20260904215335 21 94 1.6 4.8 0.00 0.00 0.00 75 1009.8
20260904215325 22 166 0.0 4.8 0.00 0.00 0.00 75 1009.7
20260904215309 22 203 0.0 6.4 0.00 0.00 0.00 75 1009.9
20260904214729 22 172 1.6 11.3 0.00 0.00 0.00 75 1009.8
20260904214713 22 214 1.6 11.3 0.00 0.00 0.00 75 1009.8
20260904214629 22 201 0.0 11.3 0.00 0.00 0.00 75 1009.9
20260904214529 22 190 0.0 11.3 0.00 0.00 0.00 75 1009.6
20260904214429 22 186 0.0 11.3 0.00 0.00 0.00 74 1009.6
20260904214328 22 206 0.0 11.3 0.00 0.00 0.00 74 1009.7
20260904214258 22 301 1.6 11.3 0.00 0.00 0.00 74 1009.8
20260904214248 22 109 3.2 11.3 0.00 0.00 0.00 74 1009.6
20260904213928 22 198 0.0 11.3 0.00 0.00 0.00 74 1009.7
20260904213829 22 22 4.8 11.3 0.00 0.00 0.00 73 1009.3
20260904213728 22 211 1.6 6.4 0.00 0.00 0.00 73 1009.5
20260904213712 22 196 0.0 6.4 0.00 0.00 0.00 73 1009.5
20260904213630 22 204 1.6 6.4 0.00 0.00 0.00 73 1009.6
20260904213528 22 203 0.0 6.4 0.00 0.00 0.00 73 1009.3
20260904213429 22 171 0.0 6.4 0.00 0.00 0.00 73 1009.7
20260904213328 22 192 0.0 6.4 0.00 0.00 0.00 73 1009.6
20260904213310 22 218 1.6 6.4 0.00 0.00 0.00 73 1009.4
20260904213258 22 173 0.0 6.4 0.00 0.00 0.00 73 1009.4
20260904213248 22 104 1.6 6.4 0.00 0.00 0.00 72 1009.4
20260904212928 22 245 0.0 4.8 0.00 0.00 0.00 72 1009.4
20260904212912 22 199 1.6 4.8 0.00 0.00 0.00 72 1009.5
20260904212857 22 130 1.6 4.8 0.00 0.00 0.00 72 1009.4
20260904212843 22 189 1.6 4.8 0.00 0.00 0.00 72 1009.4
20260904212528 22 194 0.0 4.8 0.00 0.00 0.00 71 1009.5
20260904212429 22 190 0.0 4.8 0.00 0.00 0.00 71 1009.4
20260904212328 22 147 1.6 4.8 0.00 0.00 0.00 71 1009.5
20260904212213 22 194 1.6 4.8 0.00 0.00 0.00 71 1009.2
20260904212128 22 164 1.6 4.8 0.00 0.00 0.00 71 1009.4
20260904212029 22 176 1.6 4.8 0.00 0.00 0.00 70 1009.0
20260904211928 23 178 0.0 4.8 0.00 0.00 0.00 70 1008.6
20260904211912 23 201 0.0 9.7 0.00 0.00 0.00 70 1008.4
20260904211857 23 190 0.0 9.7 0.00 0.00 0.00 69 1008.3
20260904211843 23 186 0.0 9.7 0.00 0.00 0.00 69 1008.3
20260904211528 23 171 1.6 11.3 0.00 0.00 0.00 69 1008.3
20260904211429 23 164 3.2 11.3 0.00 0.00 0.00 69 1007.9
20260904211329 23 208 0.0 11.3 0.00 0.00 0.00 69 1008.1
20260904211228 23 238 4.8 11.3 0.00 0.00 0.00 69 1008.0
20260904211213 22 238 4.8 11.3 0.00 0.00 0.00 69 1008.0
20260904211128 22 198 0.0 11.3 0.00 0.00 0.00 70 1008.2
20260904211028 22 184 0.0 12.9 0.00 0.00 0.00 69 1008.2
20260904210929 22 207 1.6 12.9 0.00 0.00 0.00 69 1007.9
20260904210828 22 237 1.6 12.9 0.00 0.00 0.00 70 1008.0
20260904210728 22 129 3.2 14.5 0.00 0.00 0.00 70 1008.2
20260904210712 22 201 0.0 14.5 0.00 0.00 0.00 70 1008.2
20260904210629 22 209 8.0 14.5 0.00 0.00 0.00 70 1008.1
20260904210528 22 269 3.2 14.5 0.00 0.00 0.00 70 1008.3
20260904210428 22 219 0.0 14.5 0.00 0.00 0.00 70 1008.2
20260904210328 22 237 3.2 14.5 0.00 0.00 0.00 70 1008.3
20260904210212 22 240 4.8 14.5 0.00 0.00 0.00 70 1008.0
20260904210128 22 243 6.4 14.5 0.00 0.00 0.00 70 1008.1
20260904210028 22 198 0.0 14.5 0.00 0.00 0.00 70 1008.2
20260904205928 22 328 1.6 14.5 0.00 0.00 0.00 70 1008.3
20260904205828 22 203 0.0 16.1 0.00 0.00 0.00 70 1008.3
20260904205712 22 262 1.6 16.1 0.00 0.00 0.00 70 1008.5
20260904205628 22 219 3.2 16.1 0.00 0.00 0.00 70 1008.7
20260904205528 22 219 0.0 16.1 0.00 0.00 0.00 70 1008.3
20260904205428 22 223 0.0 16.1 0.00 0.00 0.00 70 1008.4
20260904205329 22 206 1.6 16.1 0.00 0.00 0.00 70 1008.4
20260904205301 22 206 0.0 16.1 0.00 0.00 0.00 70 1008.4
20260904205249 22 210 0.0 16.1 0.00 0.00 0.00 70 1008.4
20260904205239 22 242 3.2 16.1 0.00 0.00 0.00 70 1008.4
20260904205224 22 235 1.6 16.1 0.00 0.00 0.00 70 1008.6
20260904204948 22 182 1.6 12.9 0.00 0.00 0.00 70 1008.4
20260904204713 22 256 0.0 12.9 0.00 0.00 0.00 70 1008.4
20260904204628 22 174 0.0 12.9 0.00 0.00 0.00 70 1008.2
20260904204529 22 221 0.0 12.9 0.00 0.00 0.00 71 1008.3
20260904204428 22 187 1.6 12.9 0.00 0.00 0.00 70 1008.4
20260904204328 22 210 1.6 12.9 0.00 0.00 0.00 71 1008.3
20260904204212 22 229 3.2 12.9 0.00 0.00 0.00 71 1008.3
20260904204129 22 215 0.0 4.8 0.00 0.00 0.00 71 1008.4
20260904204028 22 181 1.6 4.8 0.00 0.00 0.00 71 1008.4
20260904203929 22 219 0.0 4.8 0.00 0.00 0.00 71 1008.1
20260904203828 22 200 0.0 4.8 0.00 0.00 0.00 71 1008.3
20260904203729 22 252 1.6 6.4 0.00 0.00 0.00 71 1008.3
20260904203715 22 244 0.0 6.4 0.00 0.00 0.00 71 1008.3
20260904203704 22 208 1.6 6.4 0.00 0.00 0.00 71 1008.2
20260904203648 22 218 1.6 6.4 0.00 0.00 0.00 71 1008.2
20260904203329 22 203 3.2 6.4 0.00 0.00 0.00 71 1008.1
20260904203228 22 196 0.0 9.7 0.00 0.00 0.00 71 1007.9
20260904203212 22 222 3.2 9.7 0.00 0.00 0.00 71 1007.9
20260904203128 22 166 0.0 9.7 0.00 0.00 0.00 71 1008.1
20260904203028 22 136 0.0 9.7 0.00 0.00 0.00 71 1008.1
20260904202928 22 204 0.0 9.7 0.00 0.00 0.00 71 1008.3
20260904202912 22 204 0.0 9.7 0.00 0.00 0.00 71 1008.2
20260904202857 22 205 1.6 9.7 0.00 0.00 0.00 71 1008.1
20260904202843 22 127 0.0 9.7 0.00 0.00 0.00 71 1008.1
20260904202529 22 200 0.0 9.7 0.00 0.00 0.00 71 1008.0
20260904202428 22 71 1.6 9.7 0.00 0.00 0.00 71 1008.2
20260904202328 22 243 3.2 9.7 0.00 0.00 0.00 71 1008.3
20260904202212 22 225 1.6 6.4 0.00 0.00 0.00 71 1008.2
20260904202128 22 230 3.2 6.4 0.00 0.00 0.00 71 1008.2
20260904202030 22 206 3.2 6.4 0.00 0.00 0.00 71 1008.2
20260904201929 22 221 1.6 9.7 0.00 0.00 0.00 71 1008.2
20260904201828 22 238 3.2 9.7 0.00 0.00 0.00 71 1008.4
20260904201729 22 236 1.6 9.7 0.00 0.00 0.00 71 1008.2
20260904201713 22 229 1.6 9.7 0.00 0.00 0.00 71 1008.2
20260904201629 22 183 0.0 9.7 0.00 0.00 0.00 72 1008.4
20260904201528 22 205 0.0 9.7 0.00 0.00 0.00 72 1008.3
20260904201511 22 223 0.0 9.7 0.00 0.00 0.00 72 1008.3
20260904201502 22 214 1.6 9.7 0.00 0.00 0.00 71 1008.3
20260904201445 22 228 0.0 9.7 0.00 0.00 0.00 72 1008.5
20260904201428 22 194 3.2 9.7 0.00 0.00 0.00 72 1008.3
20260904201129 22 170 0.0 9.7 0.00 0.00 0.00 72 1008.5
20260904201030 22 214 3.2 6.4 0.00 0.00 0.00 72 1008.2
20260904200928 22 210 0.0 9.7 0.00 0.00 0.00 71 1008.4
20260904200829 22 211 0.0 9.7 0.00 0.00 0.00 71 1008.6
20260904200728 22 219 1.6 9.7 0.00 0.00 0.00 72 1008.4
20260904200712 22 206 0.0 9.7 0.00 0.00 0.00 72 1008.4
20260904200629 22 206 1.6 9.7 0.00 0.00 0.00 72 1008.4
20260904200528 22 204 0.0 9.7 0.00 0.00 0.00 72 1008.6
20260904200428 22 243 1.6 9.7 0.00 0.00 0.00 72 1008.6
20260904200412 22 234 1.6 9.7 0.00 0.00 0.00 72 1008.5
20260904200343 22 213 3.2 9.7 0.00 0.00 0.00 72 1008.6
20260904200029 22 219 1.6 9.7 0.00 0.00 0.00 72 1008.4
20260904195928 22 234 6.4 6.4 0.00 0.00 0.00 72 1008.4
20260904195829 22 201 0.0 6.4 0.00 0.00 0.00 72 1008.7
20260904195813 22 205 1.6 6.4 0.00 0.00 0.00 72 1008.4
20260904195758 22 222 3.2 6.4 0.00 0.00 0.00 72 1008.4
20260904195748 22 190 0.0 6.4 0.00 0.00 0.00 72 1008.6
20260904195428 22 196 0.0 9.7 0.00 0.00 0.00 71 1008.7
20260904195329 22 199 0.0 9.7 0.00 0.00 0.00 71 1008.6
20260904195229 22 195 0.0 11.3 0.00 0.00 0.00 71 1008.6
20260904195212 22 209 0.0 11.3 0.00 0.00 0.00 71 1008.6
20260904195129 22 223 1.6 11.3 0.00 0.00 0.00 71 1008.8
20260904195028 22 204 0.0 11.3 0.00 0.00 0.00 71 1008.5
20260904194929 22 151 3.2 11.3 0.00 0.00 0.00 71 1008.5
20260904194829 22 184 0.0 11.3 0.00 0.00 0.00 71 1008.6
20260904194729 22 188 0.0 11.3 0.00 0.00 0.00 71 1008.5
20260904194712 22 211 1.6 11.3 0.00 0.00 0.00 71 1008.5
20260904194628 22 233 1.6 11.3 0.00 0.00 0.00 71 1008.5
20260904194604 22 205 0.0 11.3 0.00 0.00 0.00 71 1008.6
20260904194548 22 222 4.8 11.3 0.00 0.00 0.00 71 1008.7
20260904194213 22 234 1.6 11.3 0.00 0.00 0.00 71 1008.5
20260904194203 22 178 0.0 11.3 0.00 0.00 0.00 71 1008.7
20260904194147 22 196 1.6 11.3 0.00 0.00 0.00 71 1008.7
20260904193828 22 192 0.0 11.3 0.00 0.00 0.00 71 1008.7
20260904193728 22 253 4.8 14.5 0.00 0.00 0.00 71 1008.6
20260904193712 22 220 3.2 14.5 0.00 0.00 0.00 71 1008.6
20260904193628 22 203 0.0 14.5 0.00 0.00 0.00 71 1008.8
20260904193528 22 210 3.2 17.7 0.00 0.00 0.00 71 1008.9
20260904193508 22 237 3.2 17.7 0.00 0.00 0.00 72 1008.7
20260904193500 22 221 1.6 17.7 0.00 0.00 0.00 72 1008.8
20260904193444 22 212 1.6 17.7 0.00 0.00 0.00 72 1008.6
20260904193428 22 165 1.6 17.7 0.00 0.00 0.00 72 1008.7
20260904193129 22 201 0.0 17.7 0.00 0.00 0.00 72 1008.7
20260904193022 22 263 1.6 17.7 0.00 0.00 0.00 72 1008.7
20260904192916 22 232 3.2 17.7 0.00 0.00 0.00 72 1008.7
20260904192818 22 231 3.2 17.7 0.00 0.00 0.00 72 1008.7
20260904192716 22 229 3.2 17.7 0.00 0.00 0.00 72 1008.7
20260904192618 22 168 6.4 17.7 0.00 0.00 0.00 72 1008.8
20260904192516 22 257 6.4 16.1 0.00 0.00 0.00 72 1008.6
20260904192416 22 228 4.8 16.1 0.00 0.00 0.00 72 1008.8
20260904192318 22 230 4.8 16.1 0.00 0.00 0.00 72 1008.6
20260904192255 22 217 4.8 16.1 0.00 0.00 0.00 72 1008.6
20260904192240 22 230 1.6 16.1 0.00 0.00 0.00 72 1008.7
20260904191916 22 252 8.0 16.1 0.00 0.00 0.00 72 1008.7
20260904191818 22 231 11.3 16.1 0.00 0.00 0.00 72 1008.8
20260904191716 22 245 3.2 11.3 0.00 0.00 0.00 72 1008.6
20260904191616 22 201 1.6 11.3 0.00 0.00 0.00 72 1008.9
20260904191516 22 262 3.2 11.3 0.00 0.00 0.00 72 1008.7
20260904191416 22 256 3.2 11.3 0.00 0.00 0.00 72 1008.9
20260904191316 22 200 0.0 11.3 0.00 0.00 0.00 72 1008.7
20260904191216 22 211 3.2 11.3 0.00 0.00 0.00 72 1008.6
20260904191116 22 207 3.2 11.3 0.00 0.00 0.00 72 1008.7
20260904191016 22 228 0.0 11.3 0.00 0.00 0.00 72 1008.9
20260904190917 22 206 0.0 11.3 0.00 0.00 0.00 72 1008.8
20260904190817 22 230 3.2 11.3 0.00 0.00 0.00 72 1008.9
20260904190716 22 262 3.2 9.7 0.00 0.00 0.00 72 1009.1
20260904190615 22 185 1.6 9.7 0.00 0.00 0.00 72 1008.9
20260904190551 22 200 0.0 9.7 0.00 0.00 0.00 72 1008.8
20260904190536 22 224 1.6 9.7 0.00 0.00 0.00 72 1009.0
20260904190216 22 267 1.6 9.7 0.00 0.00 0.00 72 1009.0
20260904190117 22 216 1.6 9.7 0.00 0.00 0.00 72 1008.8
20260904190031 22 205 0.0 4.8 0.00 0.00 0.00 74 1009.6
20260904190027 22 216 1.6 3.2 0.00 0.00 0.00 73 1009.2
20260904190020 22 219 4.8 9.7 0.00 0.00 0.00 72 1009.0
20260904190005 22 237 1.6 9.7 0.00 0.00 0.00 72 1008.8
20260904185948 22 194 1.6 9.7 0.00 0.00 0.00 72 1008.7
20260904185924 22 216 3.2 11.3 0.00 0.00 0.00 72 1008.9
20260904185648 22 220 3.2 11.3 0.00 0.00 0.00 72 1008.9
20260904185410 22 192 1.6 11.3 0.00 0.00 0.00 72 1009.1
20260904185347 22 198 0.0 11.3 0.00 0.00 0.00 73 1009.0
20260904185110 22 198 0.0 11.3 0.00 0.00 0.00 73 1009.1
20260904185056 22 190 0.0 11.3 0.00 0.00 0.00 73 1009.0
20260904185041 22 167 1.6 11.3 0.00 0.00 0.00 73 1009.2
20260904185016 22 192 0.0 9.7 0.00 0.00 0.00 73 1009.3
20260904185001 22 210 0.0 9.7 0.00 0.00 0.00 73 1009.1
20260904184945 22 201 0.0 9.7 0.00 0.00 0.00 73 1009.3
20260904184929 22 202 0.0 9.7 0.00 0.00 0.00 73 1009.2
20260904184912 22 224 0.0 9.7 0.00 0.00 0.00 73 1009.1
20260904184646 22 194 0.0 9.7 0.00 0.00 0.00 73 1009.1
20260904184630 22 197 0.0 9.7 0.00 0.00 0.00 73 1009.3
20260904184614 22 208 1.6 9.7 0.00 0.00 0.00 73 1009.3
20260904184115 22 216 1.6 3.2 0.00 0.00 0.00 73 1009.2
20260904183640 22 177 0.0 3.2 0.00 0.00 0.00 73 1009.2
20260904183625 22 196 0.0 3.2 0.00 0.00 0.00 73 1009.4
20260904183609 22 217 3.2 3.2 0.00 0.00 0.00 74 1009.3
20260904183553 22 199 0.0 3.2 0.00 0.00 0.00 74 1009.5
20260904183531 22 198 1.6 3.2 0.00 0.00 0.00 73 1009.4
20260904183515 22 205 0.0 3.2 0.00 0.00 0.00 73 1009.1
20260904183459 22 203 0.0 3.2 0.00 0.00 0.00 73 1009.7
20260904183444 22 204 0.0 3.2 0.00 0.00 0.00 73 1009.7
20260904182735 22 194 0.0 4.8 0.00 0.00 0.00 74 1009.4
20260904182720 22 198 0.0 4.8 0.00 0.00 0.00 74 1009.5
20260904182703 22 196 0.0 4.8 0.00 0.00 0.00 73 1009.8
20260904182217 22 199 0.0 4.8 0.00 0.00 0.00 73 1009.6
20260904182115 22 199 0.0 4.8 0.00 0.00 0.00 73 1009.5
20260904182017 22 203 0.0 4.8 0.00 0.00 0.00 73 1009.7
20260904181916 22 206 0.0 4.8 0.00 0.00 0.00 73 1009.8
20260904181816 22 205 0.0 4.8 0.00 0.00 0.00 73 1009.8
20260904181716 22 205 0.0 3.2 0.00 0.00 0.00 73 1009.7
20260904181616 22 199 0.0 3.2 0.00 0.00 0.00 73 1010.0
20260904181515 22 194 0.0 3.2 0.00 0.00 0.00 73 1009.7
20260904181416 22 200 0.0 4.8 0.00 0.00 0.00 73 1009.8
20260904181318 22 155 1.6 4.8 0.00 0.00 0.00 73 1009.8
20260904181217 22 194 0.0 4.8 0.00 0.00 0.00 73 1009.8
20260904181116 22 197 0.0 4.8 0.00 0.00 0.00 73 1009.7
20260904181054 22 194 0.0 4.8 0.00 0.00 0.00 73 1009.6
20260904181038 22 194 0.0 4.8 0.00 0.00 0.00 73 1009.8
20260904180715 22 185 0.0 4.8 0.00 0.00 0.00 73 1009.8
20260904180653 22 204 1.6 4.8 0.00 0.00 0.00 73 1009.8
20260904180637 22 194 0.0 4.8 0.00 0.00 0.00 73 1009.7
20260904180318 22 199 0.0 3.2 0.00 0.00 0.00 73 1009.7
20260904180216 22 195 0.0 3.2 0.00 0.00 0.00 72 1009.8
20260904180116 22 187 0.0 3.2 0.00 0.00 0.00 72 1009.7
20260904180016 22 221 0.0 3.2 0.00 0.00 0.00 72 1009.6
20260904175917 22 203 0.0 3.2 0.00 0.00 0.00 72 1009.6
20260904175818 22 194 0.0 3.2 0.00 0.00 0.00 72 1009.7
20260904175716 22 192 0.0 3.2 0.00 0.00 0.00 72 1009.6
20260904175616 22 209 1.6 3.2 0.00 0.00 0.00 72 1009.5
20260904175517 22 186 0.0 3.2 0.00 0.00 0.00 72 1009.6
20260904175416 22 201 0.0 3.2 0.00 0.00 0.00 72 1009.7
20260904175316 22 205 0.0 3.2 0.00 0.00 0.00 72 1009.7
20260904175216 22 199 0.0 3.2 0.00 0.00 0.00 72 1009.7
20260904175116 22 199 0.0 3.2 0.00 0.00 0.00 72 1009.6
20260904175045 22 197 0.0 3.2 0.00 0.00 0.00 72 1009.6
20260904175029 22 198 0.0 3.2 0.00 0.00 0.00 72 1009.6
20260904175014 22 200 0.0 4.8 0.00 0.00 0.00 72 1009.7
20260904174745 22 198 0.0 4.8 0.00 0.00 0.00 72 1009.8
20260904174728 22 194 0.0 4.8 0.00 0.00 0.00 72 1009.6
20260904174713 22 198 0.0 4.8 0.00 0.00 0.00 72 1009.6
20260904174657 22 191 0.0 4.8 0.00 0.00 0.00 72 1009.6
20260904174640 22 194 0.0 4.8 0.00 0.00 0.00 72 1009.6
20260904174414 22 201 0.0 4.8 0.00 0.00 0.00 71 1009.5
20260904174137 22 194 0.0 4.8 0.00 0.00 0.00 71 1009.5
20260904173816 22 246 1.6 4.8 0.00 0.00 0.00 71 1009.3
20260904173716 22 214 0.0 4.8 0.00 0.00 0.00 71 1009.4
20260904173617 22 225 4.8 4.8 0.00 0.00 0.00 71 1009.3
20260904173516 22 204 0.0 3.2 0.00 0.00 0.00 71 1009.6
20260904173416 22 198 0.0 3.2 0.00 0.00 0.00 71 1009.5
20260904173317 22 256 0.0 3.2 0.00 0.00 0.00 71 1009.3
20260904173306 23 202 1.6 6.4 0.00 0.00 0.00 71 1009.4
20260904173250 23 197 0.0 4.8 0.00 0.00 0.00 71 1009.3
20260904173235 23 198 0.0 4.8 0.00 0.00 0.00 71 1009.3
20260904172959 23 201 0.0 6.4 0.00 0.00 0.00 71 1009.4
20260904172942 23 200 0.0 6.4 0.00 0.00 0.00 71 1009.3
20260904172922 23 202 1.6 6.4 0.00 0.00 0.00 71 1009.4
20260904172638 23 204 0.0 6.4 0.00 0.00 0.00 70 1009.3
20260904172622 23 200 0.0 6.4 0.00 0.00 0.00 70 1009.4
20260904172606 23 211 0.0 6.4 0.00 0.00 0.00 70 1009.1
20260904172550 23 202 3.2 6.4 0.00 0.00 0.00 70 1009.4
20260904172528 23 192 0.0 6.4 0.00 0.00 0.00 70 1009.2
20260904172251 23 255 0.0 6.4 0.00 0.00 0.00 70 1009.2
20260904172235 23 199 0.0 6.4 0.00 0.00 0.00 70 1009.3
20260904172220 23 192 0.0 6.4 0.00 0.00 0.00 70 1009.4
20260904171951 23 202 0.0 6.4 0.00 0.00 0.00 70 1009.3
20260904171412 23 192 0.0 6.4 0.00 0.00 0.00 70 1009.2
20260904171312 23 222 3.2 11.3 0.00 0.00 0.00 70 1009.1
20260904171241 23 199 1.6 11.3 0.00 0.00 0.00 70 1009.3
20260904171225 23 242 3.2 11.3 0.00 0.00 0.00 70 1009.2
20260904171210 23 219 0.0 11.3 0.00 0.00 0.00 70 1009.2
20260904171154 23 211 0.0 11.3 0.00 0.00 0.00 70 1009.2
20260904171139 23 178 0.0 11.3 0.00 0.00 0.00 70 1009.5
20260904170909 23 229 1.6 11.3 0.00 0.00 0.00 70 1009.3
20260904170852 23 205 0.0 12.9 0.00 0.00 0.00 70 1009.4
20260904170615 23 202 0.0 12.9 0.00 0.00 0.00 70 1009.3
20260904170332 23 212 0.0 12.9 0.00 0.00 0.00 70 1009.3
20260904170048 23 202 0.0 12.9 0.00 0.00 0.00 70 1009.4
20260904170032 23 226 1.6 12.9 0.00 0.00 0.00 69 1009.4
20260904165712 23 195 3.2 12.9 0.00 0.00 0.00 69 1009.3
20260904165647 23 215 3.2 6.4 0.00 0.00 0.00 69 1009.4
20260904165632 23 212 1.6 4.8 0.00 0.00 0.00 69 1009.2
20260904165312 23 234 1.6 4.8 0.00 0.00 0.00 69 1009.4
20260904165213 23 211 0.0 4.8 0.00 0.00 0.00 69 1009.3
20260904165112 23 188 1.6 4.8 0.00 0.00 0.00 68 1009.3
20260904165012 23 202 0.0 3.2 0.00 0.00 0.00 68 1009.5
20260904164912 23 216 1.6 1.6 0.00 0.00 0.00 68 1009.5
20260904164812 23 188 0.0 1.6 0.00 0.00 0.00 68 1009.4
20260904164711 23 163 0.0 1.6 0.00 0.00 0.00 68 1009.5
20260904164109 24 214 0.0 11.3 0.00 0.00 0.00 68 1009.4
20260904164009 24 203 0.0 11.3 0.00 0.00 0.00 68 1009.3
20260904163910 24 211 1.6 11.3 0.00 0.00 0.00 68 1009.6
20260904163810 24 218 3.2 6.4 0.00 0.00 0.00 68 1009.3
20260904163742 24 232 0.0 6.4 0.00 0.00 0.00 68 1009.5
20260904163710 24 194 0.0 6.4 0.00 0.00 0.00 68 1009.5
20260904163610 24 221 1.6 9.7 0.00 0.00 0.00 68 1009.4
20260904163509 24 231 1.6 9.7 0.00 0.00 0.00 68 1009.5
20260904163408 24 226 4.8 9.7 0.00 0.00 0.00 68 1009.6
20260904163352 24 202 1.6 9.7 0.00 0.00 0.00 67 1009.6
20260904163343 24 199 0.0 9.7 0.00 0.00 0.00 68 1009.5
20260904163330 24 199 0.0 9.7 0.00 0.00 0.00 68 1009.6
20260904163321 24 206 0.0 9.7 0.00 0.00 0.00 68 1009.6
20260904163305 24 198 1.6 9.7 0.00 0.00 0.00 68 1009.6
20260904163249 24 161 0.0 9.7 0.00 0.00 0.00 67 1009.5
20260904163234 24 182 0.0 9.7 0.00 0.00 0.00 68 1009.7
20260904162745 24 200 0.0 9.7 0.00 0.00 0.00 67 1009.6
20260904162729 24 208 4.8 6.4 0.00 0.00 0.00 67 1009.4
20260904162455 24 186 0.0 9.7 0.00 0.00 0.00 67 1009.7
20260904162446 24 204 0.0 4.8 0.00 0.00 0.00 67 1009.7
20260904162430 24 282 1.6 9.7 0.00 0.00 0.00 67 1009.3
20260904162417 24 235 0.0 9.7 0.00 0.00 0.00 67 1009.4
20260904162408 24 178 1.6 9.7 0.00 0.00 0.00 67 1009.4
20260904162351 24 199 0.0 9.7 0.00 0.00 0.00 67 1009.8
20260904162335 24 165 0.0 9.7 0.00 0.00 0.00 67 1009.7
20260904162059 24 188 1.6 9.7 0.00 0.00 0.00 67 1009.9
20260904161831 24 167 0.0 9.7 0.00 0.00 0.00 67 1009.7
20260904161510 24 215 1.6 11.3 0.00 0.00 0.00 67 1009.6
20260904161410 24 241 6.4 11.3 0.00 0.00 0.00 67 1009.8
20260904161310 24 205 0.0 11.3 0.00 0.00 0.00 67 1009.7
20260904161242 24 213 4.8 11.3 0.00 0.00 0.00 67 1009.9
20260904161209 24 287 1.6 11.3 0.00 0.00 0.00 67 1009.9
20260904161110 24 103 0.0 11.3 0.00 0.00 0.00 67 1009.8
20260904161010 24 168 1.6 11.3 0.00 0.00 0.00 67 1009.8
20260904160909 24 172 0.0 11.3 0.00 0.00 0.00 67 1010.0
20260904160809 24 121 0.0 11.3 0.00 0.00 0.00 67 1010.0
20260904160742 24 183 4.8 11.3 0.00 0.00 0.00 67 1010.0
20260904160710 24 199 1.6 11.3 0.00 0.00 0.00 67 1010.0
20260904160609 24 227 3.2 11.3 0.00 0.00 0.00 67 1009.7
20260904160509 24 216 6.4 11.3 0.00 0.00 0.00 67 1010.0
20260904160409 24 207 0.0 11.3 0.00 0.00 0.00 67 1009.9
20260904160309 24 237 4.8 11.3 0.00 0.00 0.00 67 1009.9
20260904160241 24 244 1.6 11.3 0.00 0.00 0.00 67 1010.0
20260904160209 24 211 4.8 11.3 0.00 0.00 0.00 67 1010.0
20260904160109 24 204 1.6 11.3 0.00 0.00 0.00 67 1010.0
20260904160010 24 166 0.0 11.3 0.00 0.00 0.00 67 1010.0
20260904155910 24 174 1.6 11.3 0.00 0.00 0.00 67 1010.0
20260904155809 24 164 0.0 11.3 0.00 0.00 0.00 67 1009.8
20260904155741 24 221 0.0 11.3 0.00 0.00 0.00 67 1010.0
20260904155710 24 177 1.6 11.3 0.00 0.00 0.00 67 1010.0
20260904155609 24 217 1.6 11.3 0.00 0.00 0.00 67 1009.8
20260904155510 24 214 1.6 11.3 0.00 0.00 0.00 67 1010.0
20260904155453 24 200 1.6 11.3 0.00 0.00 0.00 67 1010.0
20260904155437 25 202 1.6 11.3 0.00 0.00 0.00 67 1009.9
20260904155423 25 202 1.6 11.3 0.00 0.00 0.00 67 1010.0
20260904155110 25 214 0.0 11.3 0.00 0.00 0.00 67 1010.0
20260904155009 25 171 0.0 11.3 0.00 0.00 0.00 66 1009.9
20260904154911 25 228 3.2 11.3 0.00 0.00 0.00 66 1010.0
20260904154854 25 244 3.2 11.3 0.00 0.00 0.00 66 1009.9
20260904154841 25 197 0.0 11.3 0.00 0.00 0.00 66 1009.8
20260904154830 25 220 4.8 12.9 0.00 0.00 0.00 66 1009.8
20260904154509 25 55 0.0 12.9 0.00 0.00 0.00 67 1010.0
20260904154454 25 188 1.6 24.1 0.00 0.00 0.00 66 1010.2
20260904154442 25 205 0.0 12.9 0.00 0.00 0.00 66 1010.0
20260904154426 25 214 4.8 12.9 0.00 0.00 0.00 66 1010.1
20260904154413 25 226 1.6 12.9 0.00 0.00 0.00 66 1010.0
20260904154403 25 172 1.6 12.9 0.00 0.00 0.00 66 1010.0
20260904154138 25 216 1.6 17.7 0.00 0.00 0.00 66 1009.9
20260904154122 25 213 0.0 17.7 0.00 0.00 0.00 66 1010.0
20260904154106 25 227 3.2 24.1 0.00 0.00 0.00 66 1010.0
20260904154050 25 234 3.2 24.1 0.00 0.00 0.00 66 1010.2
20260904154037 25 234 3.2 24.1 0.00 0.00 0.00 66 1010.0
20260904154026 25 188 6.4 24.1 0.00 0.00 0.00 66 1010.0
20260904153750 25 196 1.6 24.1 0.00 0.00 0.00 66 1010.2
20260904153734 25 242 3.2 24.1 0.00 0.00 0.00 66 1010.1
20260904153718 25 244 3.2 24.1 0.00 0.00 0.00 66 1010.2
20260904153231 25 87 1.6 24.1 0.00 0.00 0.00 66 1010.5
20260904152909 25 217 3.2 12.9 0.00 0.00 0.00 66 1010.4
20260904152810 25 204 1.6 11.3 0.00 0.00 0.00 66 1010.7
20260904152741 25 224 3.2 11.3 0.00 0.00 0.00 66 1010.5
20260904152710 25 175 1.6 12.9 0.00 0.00 0.00 66 1010.5
20260904152610 25 165 0.0 12.9 0.00 0.00 0.00 66 1010.1
20260904152509 25 249 3.2 12.9 0.00 0.00 0.00 66 1010.5
20260904152409 25 193 0.0 12.9 0.00 0.00 0.00 66 1010.5
20260904152311 25 187 0.0 12.9 0.00 0.00 0.00 66 1010.4
20260904152241 25 78 1.6 12.9 0.00 0.00 0.00 66 1010.2
20260904152210 25 103 0.0 12.9 0.00 0.00 0.00 66 1010.2
20260904152109 25 185 3.2 12.9 0.00 0.00 0.00 66 1010.5
20260904152011 25 219 3.2 12.9 0.00 0.00 0.00 66 1010.2
20260904151910 25 196 1.6 12.9 0.00 0.00 0.00 66 1010.4
20260904151810 25 214 3.2 12.9 0.00 0.00 0.00 66 1010.6
20260904151741 25 206 6.4 12.9 0.00 0.00 0.00 66 1010.2
20260904151709 25 196 0.0 9.7 0.00 0.00 0.00 66 1010.2
20260904151645 25 161 0.0 9.7 0.00 0.00 0.00 66 1010.7
20260904151629 25 195 0.0 9.7 0.00 0.00 0.00 66 1010.6
20260904151613 25 172 0.0 9.7 0.00 0.00 0.00 66 1010.5
20260904151556 25 253 3.2 9.7 0.00 0.00 0.00 66 1010.7
20260904151542 25 125 3.2 9.7 0.00 0.00 0.00 66 1010.7
20260904151039 25 215 0.0 12.9 0.00 0.00 0.00 66 1010.6
20260904151030 25 199 1.6 12.9 0.00 0.00 0.00 66 1010.8
20260904151015 25 190 0.0 12.9 0.00 0.00 0.00 66 1010.6
20260904150959 25 199 0.0 12.9 0.00 0.00 0.00 66 1010.8
20260904150709 25 194 0.0 12.9 0.00 0.00 0.00 66 1010.6
20260904150610 25 195 0.0 12.9 0.00 0.00 0.00 66 1010.5
20260904150530 25 203 3.2 4.8 0.00 0.00 0.00 67 1010.9
20260904150525 24 190 0.0 4.8 0.00 0.00 0.00 67 1011.1
20260904150520 24 192 0.0 9.7 0.00 0.00 0.00 68 1011.3
20260904150515 25 194 0.0 12.9 0.00 0.00 0.00 66 1010.8
20260904150458 25 202 1.6 12.9 0.00 0.00 0.00 66 1010.7
20260904150442 25 223 0.0 12.9 0.00 0.00 0.00 66 1010.6
20260904150428 25 99 1.6 12.9 0.00 0.00 0.00 66 1010.4
20260904150419 25 183 0.0 12.9 0.00 0.00 0.00 66 1010.4
20260904150403 25 267 1.6 12.9 0.00 0.00 0.00 66 1010.8
20260904150346 25 239 1.6 9.7 0.00 0.00 0.00 66 1010.7
20260904150330 25 206 0.0 9.7 0.00 0.00 0.00 66 1011.0
20260904150313 25 256 1.6 9.7 0.00 0.00 0.00 67 1010.5
20260904150259 25 182 0.0 6.4 0.00 0.00 0.00 67 1010.8
20260904150248 25 198 3.2 6.4 0.00 0.00 0.00 66 1010.8
20260904150232 25 174 1.6 4.8 0.00 0.00 0.00 66 1010.8
20260904145956 25 190 0.0 4.8 0.00 0.00 0.00 67 1010.9
20260904145940 25 216 0.0 4.8 0.00 0.00 0.00 67 1011.0
20260904145927 25 200 0.0 4.8 0.00 0.00 0.00 67 1010.9
20260904145437 25 249 1.6 4.8 0.00 0.00 0.00 67 1010.9
20260904145420 25 189 0.0 4.8 0.00 0.00 0.00 67 1010.9
20260904144711 25 206 0.0 4.8 0.00 0.00 0.00 67 1010.8
20260904144655 25 149 1.6 4.8 0.00 0.00 0.00 67 1011.0
20260904144639 25 185 0.0 4.8 0.00 0.00 0.00 67 1010.8
20260904144405 25 192 0.0 4.8 0.00 0.00 0.00 67 1010.9
20260904144355 25 209 3.2 4.8 0.00 0.00 0.00 67 1010.9
20260904144340 24 200 1.6 3.2 0.00 0.00 0.00 67 1010.8
20260904144323 24 207 1.6 4.8 0.00 0.00 0.00 67 1011.0
20260904144308 24 200 0.0 4.8 0.00 0.00 0.00 67 1011.0
20260904144252 24 196 0.0 4.8 0.00 0.00 0.00 67 1011.0
20260904144023 24 137 1.6 4.8 0.00 0.00 0.00 68 1011.1
20260904144008 24 184 1.6 4.8 0.00 0.00 0.00 68 1011.2
20260904143513 24 97 1.6 6.4 0.00 0.00 0.00 68 1011.1
20260904143246 24 188 0.0 9.7 0.00 0.00 0.00 68 1011.3
20260904143230 24 194 1.6 9.7 0.00 0.00 0.00 68 1011.0
20260904142909 24 238 1.6 11.3 0.00 0.00 0.00 68 1011.0
20260904142811 24 209 0.0 11.3 0.00 0.00 0.00 68 1011.3
20260904142757 24 168 0.0 11.3 0.00 0.00 0.00 68 1011.2
20260904142746 24 199 0.0 11.3 0.00 0.00 0.00 68 1011.2
20260904142731 24 218 0.0 11.3 0.00 0.00 0.00 68 1011.2
20260904142410 24 200 3.2 11.3 0.00 0.00 0.00 68 1011.1
20260904142309 24 173 4.8 11.3 0.00 0.00 0.00 68 1011.2
20260904142255 24 209 0.0 11.3 0.00 0.00 0.00 68 1011.4
20260904142245 24 187 1.6 11.3 0.00 0.00 0.00 68 1011.4
20260904142230 24 232 4.8 11.3 0.00 0.00 0.00 68 1011.2
20260904141954 24 218 1.6 17.7 0.00 0.00 0.00 68 1011.2
20260904141938 24 322 1.6 17.7 0.00 0.00 0.00 68 1011.4
20260904141925 24 108 1.6 17.7 0.00 0.00 0.00 68 1011.2
20260904141610 24 185 1.6 17.7 0.00 0.00 0.00 68 1011.2
20260904141510 24 199 1.6 17.7 0.00 0.00 0.00 68 1011.3
20260904141409 24 239 6.4 17.7 0.00 0.00 0.00 68 1011.1
20260904141309 24 236 3.2 17.7 0.00 0.00 0.00 68 1011.2
20260904141241 24 212 0.0 17.7 0.00 0.00 0.00 68 1011.2
20260904141209 24 203 1.6 17.7 0.00 0.00 0.00 68 1011.2
20260904141145 24 232 9.7 17.7 0.00 0.00 0.00 68 1011.1
20260904141129 24 207 1.6 14.5 0.00 0.00 0.00 68 1011.2
20260904140848 25 76 14.5 24.1 0.00 0.00 0.00 67 1011.4
20260904140841 24 205 0.0 14.5 0.00 0.00 0.00 69 1011.4
20260904140827 24 195 0.0 14.5 0.00 0.00 0.00 69 1011.3
20260904140816 24 203 0.0 14.5 0.00 0.00 0.00 68 1011.3
20260904140800 24 194 6.4 14.5 0.00 0.00 0.00 68 1011.5
20260904140744 24 210 1.6 14.5 0.00 0.00 0.00 68 1011.3
20260904140727 24 270 4.8 14.5 0.00 0.00 0.00 68 1011.6
20260904140711 24 268 6.4 14.5 0.00 0.00 0.00 68 1011.3
20260904140658 25 244 9.7 14.5 0.00 0.00 0.00 68 1011.3
20260904140649 25 168 1.6 22.5 0.00 0.00 0.00 68 1011.3
20260904140412 25 190 3.2 24.1 0.00 0.00 0.00 67 1011.6
20260904135918 25 243 4.8 24.1 0.00 0.00 0.00 67 1011.4
20260904135907 25 198 1.6 24.1 0.00 0.00 0.00 67 1011.4
20260904135851 25 79 3.2 24.1 0.00 0.00 0.00 67 1011.4
20260904135836 25 220 3.2 24.1 0.00 0.00 0.00 67 1011.3
20260904135819 25 238 6.4 24.1 0.00 0.00 0.00 67 1011.5
20260904135803 25 99 3.2 24.1 0.00 0.00 0.00 67 1011.5
20260904135009 24 130 3.2 20.9 0.00 0.00 0.00 67 1011.1
20260904134910 24 207 1.6 20.9 0.00 0.00 0.00 67 1011.4
20260904134811 25 238 3.2 20.9 0.00 0.00 0.00 67 1011.5
20260904134741 25 227 11.3 20.9 0.00 0.00 0.00 67 1011.5
20260904134709 25 143 4.8 17.7 0.00 0.00 0.00 67 1011.5
20260904134610 25 209 9.7 17.7 0.00 0.00 0.00 67 1011.5
20260904134509 25 218 1.6 17.7 0.00 0.00 0.00 67 1011.5
20260904134455 25 183 4.8 12.9 0.00 0.00 0.00 67 1011.8
20260904134445 25 205 0.0 17.7 0.00 0.00 0.00 67 1011.4
20260904134429 25 205 3.2 17.7 0.00 0.00 0.00 67 1011.4
20260904134415 25 340 3.2 17.7 0.00 0.00 0.00 67 1011.6
20260904134406 25 201 1.6 17.7 0.00 0.00 0.00 67 1011.6
20260904134131 25 206 3.2 17.7 0.00 0.00 0.00 66 1011.6
20260904134114 25 100 1.6 17.7 0.00 0.00 0.00 66 1011.6
20260904134058 25 240 9.7 17.7 0.00 0.00 0.00 66 1011.8
20260904133830 25 168 0.0 12.9 0.00 0.00 0.00 67 1011.8
20260904133509 24 191 0.0 12.9 0.00 0.00 0.00 67 1011.4
20260904133409 24 175 0.0 14.5 0.00 0.00 0.00 67 1011.5
20260904133309 24 176 1.6 22.5 0.00 0.00 0.00 67 1012.1
20260904133241 24 223 3.2 22.5 0.00 0.00 0.00 67 1011.7
20260904133210 24 313 4.8 22.5 0.00 0.00 0.00 67 1011.7
20260904133109 24 217 3.2 22.5 0.00 0.00 0.00 67 1011.7
20260904133010 24 235 4.8 22.5 0.00 0.00 0.00 67 1012.0
20260904132909 24 125 0.0 22.5 0.00 0.00 0.00 67 1011.9
20260904132810 24 270 3.2 22.5 0.00 0.00 0.00 67 1012.1
20260904132741 24 262 1.6 22.5 0.00 0.00 0.00 67 1012.1
20260904132709 24 201 0.0 22.5 0.00 0.00 0.00 67 1012.1
20260904132656 24 185 4.8 12.9 0.00 0.00 0.00 67 1011.8
20260904132647 24 221 1.6 22.5 0.00 0.00 0.00 67 1011.8
20260904132631 24 137 1.6 22.5 0.00 0.00 0.00 67 1012.2
20260904132615 24 298 8.0 22.5 0.00 0.00 0.00 67 1011.8
20260904132600 24 192 0.0 12.9 0.00 0.00 0.00 67 1012.2
20260904132333 24 233 0.0 12.9 0.00 0.00 0.00 67 1011.8
20260904132009 24 216 0.0 12.9 0.00 0.00 0.00 68 1012.0
20260904131909 24 192 0.0 12.9 0.00 0.00 0.00 68 1011.6
20260904131810 24 208 0.0 12.9 0.00 0.00 0.00 68 1012.1
20260904131741 24 200 0.0 12.9 0.00 0.00 0.00 68 1012.0
20260904131709 24 192 1.6 12.9 0.00 0.00 0.00 67 1012.0
20260904131610 24 123 4.8 12.9 0.00 0.00 0.00 68 1012.1
20260904131510 24 86 1.6 9.7 0.00 0.00 0.00 68 1012.0
20260904131409 24 329 0.0 11.3 0.00 0.00 0.00 68 1011.9
20260904131310 24 167 0.0 24.1 0.00 0.00 0.00 68 1011.7
20260904131241 24 193 1.6 24.1 0.00 0.00 0.00 68 1012.0
20260904131209 24 175 0.0 24.1 0.00 0.00 0.00 68 1012.0
20260904131110 25 231 4.8 24.1 0.00 0.00 0.00 67 1011.8
20260904131010 25 199 0.0 24.1 0.00 0.00 0.00 68 1011.9
20260904130911 25 193 1.6 24.1 0.00 0.00 0.00 67 1011.9
20260904130809 25 158 3.2 24.1 0.00 0.00 0.00 67 1012.1
20260904130741 25 0 3.2 24.1 0.00 0.00 0.00 67 1011.8
20260904130709 25 196 0.0 24.1 0.00 0.00 0.00 67 1011.8
20260904130609 24 259 1.6 24.1 0.00 0.00 0.00 67 1011.9
20260904130510 24 207 1.6 24.1 0.00 0.00 0.00 67 1012.0
20260904130453 24 214 6.4 24.1 0.00 0.00 0.00 68 1012.0
20260904130437 24 110 1.6 20.9 0.00 0.00 0.00 68 1012.0
20260904130424 24 146 4.8 20.9 0.00 0.00 0.00 68 1011.9
20260904130109 24 226 6.4 17.7 0.00 0.00 0.00 67 1012.1
20260904130009 24 225 4.8 17.7 0.00 0.00 0.00 67 1012.1
20260904125908 24 31 4.8 17.7 0.00 0.00 0.00 68 1012.3
20260904125809 24 194 1.6 17.7 0.00 0.00 0.00 68 1012.2
20260904125741 24 218 1.6 17.7 0.00 0.00 0.00 68 1011.9
20260904125709 24 196 1.6 17.7 0.00 0.00 0.00 68 1011.9
20260904125609 24 213 0.0 17.7 0.00 0.00 0.00 68 1012.2
20260904125509 24 144 1.6 22.5 0.00 0.00 0.00 68 1012.5
20260904125409 24 186 3.2 22.5 0.00 0.00 0.00 68 1012.2
20260904125309 24 189 1.6 22.5 0.00 0.00 0.00 68 1012.1
20260904125241 24 214 3.2 22.5 0.00 0.00 0.00 68 1012.2
20260904125210 24 192 1.6 22.5 0.00 0.00 0.00 68 1012.2
20260904125109 24 211 1.6 22.5 0.00 0.00 0.00 68 1012.3
20260904125010 24 196 8.0 22.5 0.00 0.00 0.00 68 1012.2
20260904124909 24 131 3.2 22.5 0.00 0.00 0.00 68 1012.4
20260904124808 23 101 3.2 22.5 0.00 0.00 0.00 69 1012.2
20260904124741 23 340 4.8 22.5 0.00 0.00 0.00 69 1012.3
20260904124709 23 184 1.6 22.5 0.00 0.00 0.00 69 1012.3
20260904124608 23 212 1.6 25.7 0.00 0.00 0.00 69 1012.2
20260904124543 23 183 0.0 25.7 0.00 0.00 0.00 69 1012.2
20260904124528 23 166 0.0 25.7 0.00 0.00 0.00 69 1012.3
20260904124241 23 170 0.0 25.7 0.00 0.00 0.00 69 1012.6
20260904124208 23 217 9.7 25.7 0.00 0.00 0.00 69 1012.6
20260904124108 23 29 3.2 25.7 0.00 0.00 0.00 68 1012.3
20260904124008 23 212 1.6 25.7 0.00 0.00 0.00 69 1012.4
20260904123908 23 78 3.2 25.7 0.00 0.00 0.00 68 1012.5
20260904123810 23 272 3.2 25.7 0.00 0.00 0.00 68 1012.2
20260904123740 23 344 6.4 25.7 0.00 0.00 0.00 68 1012.4
20260904123709 23 252 14.5 25.7 0.00 0.00 0.00 68 1012.4
20260904123608 24 193 1.6 24.1 0.00 0.00 0.00 68 1012.3
20260904123510 24 200 1.6 24.1 0.00 0.00 0.00 68 1012.6
20260904123432 23 242 6.4 16.1 0.00 0.00 0.00 68 1012.7
20260904123426 24 170 1.6 24.1 0.00 0.00 0.00 68 1012.3
20260904123409 24 244 3.2 24.1 0.00 0.00 0.00 68 1012.4
20260904123355 24 72 1.6 24.1 0.00 0.00 0.00 68 1012.6
20260904123345 24 154 0.0 24.1 0.00 0.00 0.00 69 1012.6
20260904123329 24 200 0.0 24.1 0.00 0.00 0.00 69 1012.5
20260904123314 24 205 0.0 24.1 0.00 0.00 0.00 69 1012.4
20260904123033 24 185 0.0 24.1 0.00 0.00 0.00 68 1012.6
20260904123020 24 192 0.0 24.1 0.00 0.00 0.00 68 1012.6
20260904122747 23 213 1.6 24.1 0.00 0.00 0.00 69 1012.4
20260904122732 23 194 1.6 24.1 0.00 0.00 0.00 69 1012.6
20260904122716 23 256 14.5 24.1 0.00 0.00 0.00 68 1012.5
20260904122204 23 196 1.6 16.1 0.00 0.00 0.00 68 1012.8
20260904122127 23 217 4.8 16.1 0.00 0.00 0.00 68 1012.6
20260904122111 23 192 0.0 16.1 0.00 0.00 0.00 69 1012.6
20260904121840 24 189 0.0 11.3 0.00 0.00 0.00 68 1012.8
20260904121830 23 95 1.6 16.1 0.00 0.00 0.00 69 1012.7
20260904121814 23 207 3.2 16.1 0.00 0.00 0.00 69 1012.7
20260904121801 23 230 1.6 16.1 0.00 0.00 0.00 68 1012.8
20260904121746 24 236 9.7 16.1 0.00 0.00 0.00 68 1012.7
20260904121730 24 232 4.8 14.5 0.00 0.00 0.00 68 1012.6
20260904121713 24 143 4.8 11.3 0.00 0.00 0.00 68 1012.6
20260904121152 24 203 0.0 11.3 0.00 0.00 0.00 68 1012.6
20260904121052 24 200 3.2 11.3 0.00 0.00 0.00 68 1013.0
20260904121033 24 197 0.0 17.7 0.00 0.00 0.00 68 1013.0
20260904121025 24 228 3.2 14.5 0.00 0.00 0.00 68 1012.7
20260904121009 24 153 1.6 14.5 0.00 0.00 0.00 68 1012.8
20260904120953 24 190 0.0 17.7 0.00 0.00 0.00 68 1013.0
20260904120652 24 161 0.0 27.4 0.00 0.00 0.00 68 1013.1
20260904120553 24 65 1.6 27.4 0.00 0.00 0.00 68 1013.0
20260904120452 23 131 3.2 27.4 0.00 0.00 0.00 68 1013.0
20260904120405 23 188 0.0 27.4 0.00 0.00 0.00 69 1013.1
20260904120349 23 194 1.6 27.4 0.00 0.00 0.00 69 1012.8
20260904120337 23 184 1.6 27.4 0.00 0.00 0.00 69 1012.8
20260904120313 23 174 1.6 27.4 0.00 0.00 0.00 69 1012.8
20260904120026 23 85 12.9 27.4 0.00 0.00 0.00 69 1013.2
20260904120018 23 192 0.0 27.4 0.00 0.00 0.00 69 1012.8
20260904120002 23 232 11.3 27.4 0.00 0.00 0.00 68 1013.0
20260904115948 23 85 12.9 27.4 0.00 0.00 0.00 68 1013.2
20260904115647 23 218 1.6 24.1 0.00 0.00 0.00 69 1013.3
20260904115539 23 87 1.6 24.1 0.00 0.00 0.00 69 1013.1
20260904115441 23 102 1.6 24.1 0.00 0.00 0.00 68 1013.0
20260904115340 23 185 3.2 24.1 0.00 0.00 0.00 68 1013.0
20260904115240 23 207 0.0 24.1 0.00 0.00 0.00 68 1013.1
20260904115227 23 165 1.6 24.1 0.00 0.00 0.00 68 1013.1
20260904115216 23 220 8.0 20.9 0.00 0.00 0.00 68 1013.3
20260904115201 24 183 1.6 20.9 0.00 0.00 0.00 68 1013.0
20260904115145 24 245 6.4 20.9 0.00 0.00 0.00 67 1013.2
20260904114909 24 231 3.2 11.3 0.00 0.00 0.00 67 1013.1
20260904114858 24 36 3.2 11.3 0.00 0.00 0.00 67 1013.1
20260904114540 24 204 4.8 16.1 0.00 0.00 0.00 67 1013.3
20260904114441 24 211 1.6 16.1 0.00 0.00 0.00 67 1013.2
20260904114423 24 207 1.6 17.7 0.00 0.00 0.00 67 1013.2
20260904114407 24 141 0.0 20.9 0.00 0.00 0.00 67 1013.4
20260904114355 24 200 0.0 20.9 0.00 0.00 0.00 67 1013.4
20260904114040 24 202 6.4 20.9 0.00 0.00 0.00 66 1013.2
20260904113940 24 179 0.0 20.9 0.00 0.00 0.00 66 1013.2
20260904113840 24 170 1.6 20.9 0.00 0.00 0.00 66 1013.2
20260904113820 25 298 3.2 16.1 0.00 0.00 0.00 64 1013.5
20260904113801 24 157 1.6 20.9 0.00 0.00 0.00 66 1013.2
20260904113748 24 295 8.0 20.9 0.00 0.00 0.00 66 1013.4
20260904113732 24 319 9.7 20.9 0.00 0.00 0.00 66 1013.1
20260904113715 25 108 9.7 20.9 0.00 0.00 0.00 65 1013.2
20260904113440 25 160 1.6 16.1 0.00 0.00 0.00 64 1013.5
20260904113141 25 236 0.0 16.1 0.00 0.00 0.00 64 1013.4
20260904113114 25 124 3.2 16.1 0.00 0.00 0.00 63 1013.3
20260904113100 25 257 1.6 16.1 0.00 0.00 0.00 63 1013.3
20260904112726 25 94 1.6 16.1 0.00 0.00 0.00 63 1013.5
20260904112656 25 169 3.2 12.9 0.00 0.00 0.00 63 1013.8
20260904112651 25 191 3.2 16.1 0.00 0.00 0.00 63 1013.5
20260904112637 25 259 3.2 16.1 0.00 0.00 0.00 63 1013.4
20260904112621 25 90 0.0 16.1 0.00 0.00 0.00 63 1013.5
20260904112606 25 164 1.6 11.3 0.00 0.00 0.00 62 1013.8
20260904112538 25 178 1.6 11.3 0.00 0.00 0.00 63 1013.3
20260904112308 25 122 4.8 11.3 0.00 0.00 0.00 63 1013.6
20260904112252 25 60 0.0 12.9 0.00 0.00 0.00 63 1013.5
20260904112237 25 210 3.2 12.9 0.00 0.00 0.00 64 1013.3
20260904111748 25 182 0.0 20.9 0.00 0.00 0.00 63 1013.7
20260904111429 25 224 1.6 20.9 0.00 0.00 0.00 63 1013.7
20260904111329 25 130 0.0 22.5 0.00 0.00 0.00 63 1013.6
20260904111303 25 163 0.0 22.5 0.00 0.00 0.00 63 1014.1
20260904111251 25 138 3.2 22.5 0.00 0.00 0.00 63 1014.1
20260904111240 25 306 1.6 22.5 0.00 0.00 0.00 63 1013.7
20260904111225 25 189 1.6 22.5 0.00 0.00 0.00 64 1013.8
20260904111209 25 64 1.6 22.5 0.00 0.00 0.00 64 1013.6
20260904111153 25 193 1.6 22.5 0.00 0.00 0.00 64 1013.6
20260904110919 25 227 4.8 22.5 0.00 0.00 0.00 63 1013.6
20260904110909 25 150 1.6 22.5 0.00 0.00 0.00 64 1013.6
20260904110410 25 219 11.3 20.9 0.00 0.00 0.00 63 1013.5
20260904110343 25 316 1.6 14.5 0.00 0.00 0.00 63 1013.7
20260904110046 25 191 3.2 11.3 0.00 0.00 0.00 63 1013.7
20260904105806 25 196 0.0 9.7 0.00 0.00 0.00 63 1013.6
20260904105752 25 176 0.0 9.7 0.00 0.00 0.00 63 1013.6
20260904105740 25 200 4.8 9.7 0.00 0.00 0.00 63 1013.8
20260904105725 25 181 1.6 6.4 0.00 0.00 0.00 63 1013.7
20260904105708 25 221 0.0 14.5 0.00 0.00 0.00 63 1013.6
20260904105213 25 211 1.6 14.5 0.00 0.00 0.00 63 1014.2
20260904105129 25 74 1.6 14.5 0.00 0.00 0.00 63 1013.8
20260904105028 25 169 0.0 14.5 0.00 0.00 0.00 64 1013.7
20260904104928 25 317 1.6 14.5 0.00 0.00 0.00 64 1013.7
20260904104907 25 199 0.0 14.5 0.00 0.00 0.00 64 1013.8
20260904104837 25 205 0.0 14.5 0.00 0.00 0.00 63 1013.9
20260904104521 25 220 0.0 4.8 0.00 0.00 0.00 66 1013.9
20260904104517 25 241 6.4 14.5 0.00 0.00 0.00 64 1013.9
20260904104501 25 198 1.6 4.8 0.00 0.00 0.00 64 1014.0
20260904104445 25 178 1.6 4.8 0.00 0.00 0.00 65 1013.9
20260904104427 25 220 0.0 4.8 0.00 0.00 0.00 66 1013.9
20260904104117 24 193 3.2 11.3 0.00 0.00 0.00 65 1013.8
20260904104016 24 201 0.0 20.9 0.00 0.00 0.00 65 1013.8
20260904103917 24 196 0.0 20.9 0.00 0.00 0.00 65 1013.9
20260904103852 24 197 1.6 20.9 0.00 0.00 0.00 65 1013.9
20260904103827 24 217 0.0 20.9 0.00 0.00 0.00 65 1013.9
20260904103812 24 205 0.0 20.9 0.00 0.00 0.00 65 1014.2
20260904103757 24 175 0.0 33.8 0.00 0.00 0.00 65 1014.1
20260904103741 24 261 0.0 33.8 0.00 0.00 0.00 65 1013.9
20260904103456 24 155 4.8 33.8 0.00 0.00 0.00 66 1014.1
20260904102917 23 198 4.8 33.8 0.00 0.00 0.00 65 1014.0
20260904102816 23 239 9.7 33.8 0.00 0.00 0.00 65 1013.7
20260904102717 23 289 6.4 33.8 0.00 0.00 0.00 66 1014.1
20260904102616 23 176 17.7 33.8 0.00 0.00 0.00 66 1013.9
20260904102553 23 198 0.0 9.7 0.00 0.00 0.00 69 1014.2
20260904102538 23 185 0.0 9.7 0.00 0.00 0.00 68 1014.2
20260904102522 23 216 1.6 12.9 0.00 0.00 0.00 68 1014.0
20260904102459 23 145 1.6 12.9 0.00 0.00 0.00 68 1014.0
20260904102442 23 209 0.0 12.9 0.00 0.00 0.00 68 1014.2
20260904102206 23 235 4.8 12.9 0.00 0.00 0.00 69 1014.1
20260904101716 23 216 1.6 17.7 0.00 0.00 0.00 69 1014.1
20260904101616 23 131 4.8 17.7 0.00 0.00 0.00 69 1014.3
20260904101554 23 47 1.6 17.7 0.00 0.00 0.00 69 1014.5
20260904101537 22 192 0.0 17.7 0.00 0.00 0.00 69 1014.0
20260904101216 22 167 1.6 17.7 0.00 0.00 0.00 70 1014.1
20260904101116 22 162 1.6 17.7 0.00 0.00 0.00 70 1014.3
20260904101053 22 271 1.6 17.7 0.00 0.00 0.00 70 1014.2
20260904101038 22 180 0.0 17.7 0.00 0.00 0.00 71 1014.1
20260904100716 22 232 1.6 22.5 0.00 0.00 0.00 72 1014.3
20260904100617 22 196 0.0 22.5 0.00 0.00 0.00 72 1014.5
20260904100517 22 99 1.6 22.5 0.00 0.00 0.00 72 1014.5
20260904100416 22 189 0.0 22.5 0.00 0.00 0.00 73 1014.3
20260904100317 22 196 1.6 22.5 0.00 0.00 0.00 73 1014.3
20260904100216 22 234 9.7 22.5 0.00 0.00 0.00 72 1014.3
20260904100116 22 266 4.8 22.5 0.00 0.00 0.00 73 1014.2
20260904100016 22 294 3.2 22.5 0.00 0.00 0.00 73 1014.2
20260904095916 22 198 11.3 22.5 0.00 0.00 0.00 72 1014.3
20260904095817 22 210 3.2 14.5 0.00 0.00 0.00 72 1014.5
20260904095717 22 203 3.2 14.5 0.00 0.00 0.00 72 1014.5
20260904095616 22 203 0.0 12.9 0.00 0.00 0.00 73 1014.5
20260904095516 22 199 4.8 24.1 0.00 0.00 0.00 72 1014.3
20260904095416 22 210 6.4 24.1 0.00 0.00 0.00 73 1014.5
20260904095359 22 234 6.4 17.7 0.00 0.00 0.00 72 1014.7
20260904095349 22 202 3.2 24.1 0.00 0.00 0.00 73 1014.3
20260904095328 22 180 1.6 24.1 0.00 0.00 0.00 73 1014.6
20260904095312 22 189 0.0 24.1 0.00 0.00 0.00 74 1014.6
20260904095048 22 199 0.0 24.1 0.00 0.00 0.00 74 1014.5
20260904095032 21 218 1.6 25.7 0.00 0.00 0.00 74 1014.5
20260904095017 21 223 4.8 25.7 0.00 0.00 0.00 74 1014.8
20260904094952 21 198 3.2 25.7 0.00 0.00 0.00 74 1014.8
20260904094936 21 229 4.8 25.7 0.00 0.00 0.00 74 1014.7
20260904094919 21 225 6.4 25.7 0.00 0.00 0.00 74 1014.6
20260904094902 21 264 8.0 25.7 0.00 0.00 0.00 74 1014.6
20260904094847 21 232 6.4 25.7 0.00 0.00 0.00 74 1014.6
20260904094824 22 201 3.2 25.7 0.00 0.00 0.00 73 1014.7
20260904094808 22 218 6.4 25.7 0.00 0.00 0.00 73 1014.5
20260904094312 22 28 4.8 20.9 0.00 0.00 0.00 73 1014.7
20260904093517 22 222 6.4 17.7 0.00 0.00 0.00 72 1014.7
20260904093416 22 138 1.6 17.7 0.00 0.00 0.00 72 1014.5
20260904093317 22 184 1.6 17.7 0.00 0.00 0.00 72 1014.9
20260904093216 22 180 1.6 17.7 0.00 0.00 0.00 73 1015.0
20260904093116 22 235 0.0 17.7 0.00 0.00 0.00 73 1014.7
20260904093054 22 212 12.9 17.7 0.00 0.00 0.00 72 1014.7
20260904093037 22 154 1.6 14.5 0.00 0.00 0.00 72 1014.7
20260904092717 22 210 0.0 14.5 0.00 0.00 0.00 73 1015.1
20260904092614 22 222 3.2 14.5 0.00 0.00 0.00 73 1014.9
20260904092514 22 181 1.6 14.5 0.00 0.00 0.00 73 1014.7
20260904092414 22 144 0.0 11.3 0.00 0.00 0.00 73 1014.9
20260904092314 22 215 0.0 11.3 0.00 0.00 0.00 73 1014.9
20260904092214 22 195 3.2 12.9 0.00 0.00 0.00 73 1014.9
20260904092113 22 204 0.0 17.7 0.00 0.00 0.00 73 1015.2
20260904092014 22 204 0.0 17.7 0.00 0.00 0.00 73 1015.0
20260904091916 22 197 0.0 22.5 0.00 0.00 0.00 74 1015.2
20260904091814 22 193 0.0 22.5 0.00 0.00 0.00 74 1014.9
20260904091715 22 212 1.6 22.5 0.00 0.00 0.00 74 1015.0
20260904091614 21 197 0.0 22.5 0.00 0.00 0.00 74 1015.0
20260904091514 21 215 8.0 22.5 0.00 0.00 0.00 74 1015.2
20260904091414 21 120 1.6 22.5 0.00 0.00 0.00 74 1015.2
20260904091313 21 180 3.2 22.5 0.00 0.00 0.00 74 1015.0
20260904091237 21 225 11.3 22.5 0.00 0.00 0.00 74 1015.1
20260904091222 21 248 4.8 22.5 0.00 0.00 0.00 74 1015.1
20260904091206 21 251 12.9 22.5 0.00 0.00 0.00 73 1015.2
20260904090931 21 317 3.2 22.5 0.00 0.00 0.00 74 1015.2
20260904090907 21 115 4.8 22.5 0.00 0.00 0.00 75 1015.4
20260904090852 21 195 0.0 22.5 0.00 0.00 0.00 75 1015.3
20260904090836 21 196 0.0 22.5 0.00 0.00 0.00 74 1015.1
20260904090822 21 267 1.6 22.5 0.00 0.00 0.00 74 1015.3
20260904090334 22 235 1.6 17.7 0.00 0.00 0.00 74 1015.2
20260904090049 22 202 4.8 17.7 0.00 0.00 0.00 74 1015.2
20260904090033 22 220 6.4 17.7 0.00 0.00 0.00 74 1015.3
20260904085716 22 237 1.6 17.7 0.00 0.00 0.00 74 1015.3
20260904085615 22 177 0.0 17.7 0.00 0.00 0.00 74 1015.2
20260904085513 22 161 0.0 17.7 0.00 0.00 0.00 74 1015.4
20260904085456 22 218 9.7 16.1 0.00 0.00 0.00 73 1015.3
20260904085440 22 128 3.2 16.1 0.00 0.00 0.00 73 1015.1
20260904085214 22 213 3.2 4.8 0.00 0.00 0.00 73 1015.2
20260904085114 22 193 0.0 4.8 0.00 0.00 0.00 73 1015.1
20260904085015 22 203 0.0 4.8 0.00 0.00 0.00 73 1015.1
20260904085002 22 201 0.0 0.0 0.00 0.00 0.00 73 1015.1
20260904084953 22 206 3.2 4.8 0.00 0.00 0.00 73 1015.3
20260904084937 22 139 0.0 1.6 0.00 0.00 0.00 73 1015.3
20260904084918 22 201 0.0 0.0 0.00 0.00 0.00 73 1015.1
20260904084409 22 154 0.0 17.7 0.00 0.00 0.00 73 1015.2
20260904084308 22 172 0.0 17.7 0.00 0.00 0.00 73 1015.3
20260904084240 22 204 3.2 17.7 0.00 0.00 0.00 73 1015.3
20260904084207 22 244 4.8 12.9 0.00 0.00 0.00 73 1015.3
20260904084108 22 176 1.6 14.5 0.00 0.00 0.00 72 1015.3
20260904084006 22 137 0.0 24.1 0.00 0.00 0.00 73 1015.2
20260904083907 22 196 1.6 24.1 0.00 0.00 0.00 73 1015.2
20260904083807 22 208 0.0 24.1 0.00 0.00 0.00 72 1015.4
20260904083739 22 223 3.2 24.1 0.00 0.00 0.00 72 1015.4
20260904083706 22 214 3.2 24.1 0.00 0.00 0.00 72 1015.5
20260904083634 23 198 3.2 9.7 0.00 0.00 0.00 72 1015.6
20260904083630 22 219 0.0 14.5 0.00 0.00 0.00 72 1015.5
20260904083626 22 217 4.8 14.5 0.00 0.00 0.00 73 1015.6
20260904083618 22 212 1.6 24.1 0.00 0.00 0.00 72 1015.3
20260904083603 22 190 0.0 24.1 0.00 0.00 0.00 72 1015.3
20260904083546 22 227 3.2 24.1 0.00 0.00 0.00 72 1015.5
20260904083314 22 246 3.2 24.1 0.00 0.00 0.00 71 1015.3
20260904083305 22 240 4.8 24.1 0.00 0.00 0.00 71 1015.3
20260904083249 22 65 11.3 24.1 0.00 0.00 0.00 71 1015.2
20260904083233 22 230 3.2 22.5 0.00 0.00 0.00 71 1015.2
20260904083218 23 251 6.4 22.5 0.00 0.00 0.00 71 1014.9
20260904083203 23 259 9.7 16.1 0.00 0.00 0.00 71 1015.6
20260904082934 23 218 0.0 9.7 0.00 0.00 0.00 72 1015.4
20260904082918 22 184 0.0 14.5 0.00 0.00 0.00 72 1015.3
20260904082642 22 198 1.6 14.5 0.00 0.00 0.00 72 1015.4
20260904082627 22 199 0.0 14.5 0.00 0.00 0.00 72 1015.5
20260904082400 22 217 1.6 14.5 0.00 0.00 0.00 71 1015.5
20260904082343 22 188 0.0 14.5 0.00 0.00 0.00 72 1015.6
20260904082108 22 215 1.6 14.5 0.00 0.00 0.00 73 1015.5
20260904082054 22 196 0.0 14.5 0.00 0.00 0.00 73 1015.6
20260904081826 22 227 11.3 14.5 0.00 0.00 0.00 72 1015.4
20260904081523 23 215 1.6 11.3 0.00 0.00 0.00 71 1015.6
20260904081518 23 205 1.6 11.3 0.00 0.00 0.00 72 1015.6
20260904081502 23 196 0.0 11.3 0.00 0.00 0.00 72 1015.6
20260904081446 23 217 6.4 11.3 0.00 0.00 0.00 71 1015.6
20260904081206 23 278 0.0 11.3 0.00 0.00 0.00 71 1015.4
20260904081106 23 191 0.0 11.3 0.00 0.00 0.00 72 1015.7
20260904081007 23 210 4.8 20.9 0.00 0.00 0.00 71 1015.7
20260904080951 22 196 0.0 20.9 0.00 0.00 0.00 72 1015.6
20260904080936 22 188 0.0 20.9 0.00 0.00 0.00 73 1015.6
20260904080920 22 191 0.0 20.9 0.00 0.00 0.00 74 1015.6
20260904080606 22 195 0.0 20.9 0.00 0.00 0.00 73 1015.5
20260904080507 22 191 0.0 20.9 0.00 0.00 0.00 73 1015.6
20260904080406 22 192 0.0 20.9 0.00 0.00 0.00 75 1015.7
20260904080306 21 236 8.0 20.9 0.00 0.00 0.00 75 1015.7
20260904080238 21 196 0.0 20.9 0.00 0.00 0.00 75 1015.7
20260904080206 21 194 0.0 20.9 0.00 0.00 0.00 75 1015.7
20260904080106 21 207 1.6 20.9 0.00 0.00 0.00 75 1015.4
20260904080042 21 89 3.2 6.4 0.00 0.00 0.00 76 1015.5
20260904080026 21 203 1.6 6.4 0.00 0.00 0.00 76 1015.5
20260904080010 21 216 3.2 6.4 0.00 0.00 0.00 76 1015.8
20260904075953 21 200 0.0 6.4 0.00 0.00 0.00 76 1015.8
20260904075945 21 201 0.0 6.4 0.00 0.00 0.00 76 1015.8
20260904075930 21 225 3.2 6.4 0.00 0.00 0.00 75 1015.7
20260904075914 21 215 0.0 9.7 0.00 0.00 0.00 76 1015.6
20260904075420 21 202 0.0 14.5 0.00 0.00 0.00 77 1015.7
20260904075107 21 210 1.6 14.5 0.00 0.00 0.00 77 1015.8
20260904075006 21 227 4.8 14.5 0.00 0.00 0.00 78 1015.8
20260904074907 20 184 3.2 14.5 0.00 0.00 0.00 78 1015.7
20260904074807 20 221 4.8 14.5 0.00 0.00 0.00 79 1015.8
20260904074751 20 204 0.0 14.5 0.00 0.00 0.00 79 1015.8
20260904074743 20 184 0.0 14.5 0.00 0.00 0.00 79 1015.8
20260904074727 20 224 1.6 14.5 0.00 0.00 0.00 80 1015.5
20260904074405 20 242 1.6 11.3 0.00 0.00 0.00 81 1016.0
20260904074306 19 195 0.0 11.3 0.00 0.00 0.00 81 1015.5
20260904074226 19 194 0.0 11.3 0.00 0.00 0.00 81 1015.5
20260904074219 19 214 6.4 11.3 0.00 0.00 0.00 82 1015.6
20260904074213 19 173 0.0 11.3 0.00 0.00 0.00 81 1015.6
20260904074158 19 196 0.0 11.3 0.00 0.00 0.00 82 1015.7
20260904074144 19 208 3.2 11.3 0.00 0.00 0.00 81 1015.9
20260904074127 19 204 3.2 11.3 0.00 0.00 0.00 82 1015.9
20260904074101 19 234 4.8 11.3 0.00 0.00 0.00 82 1015.7
20260904074053 19 209 0.0 11.3 0.00 0.00 0.00 82 1015.6
20260904074037 19 222 3.2 11.3 0.00 0.00 0.00 82 1015.8
20260904074022 19 226 6.4 11.3 0.00 0.00 0.00 81 1015.7
20260904074006 19 194 0.0 11.3 0.00 0.00 0.00 82 1015.8
20260904073952 19 208 1.6 11.3 0.00 0.00 0.00 82 1015.6
20260904073726 19 190 0.0 4.8 0.00 0.00 0.00 82 1016.1
20260904073231 19 214 0.0 3.2 0.00 0.00 0.00 82 1015.7
20260904073216 19 207 1.6 3.2 0.00 0.00 0.00 82 1015.8
20260904073159 19 214 0.0 3.2 0.00 0.00 0.00 82 1015.8
20260904072406 19 196 0.0 3.2 0.00 0.00 0.00 82 1016.0
20260904072306 19 217 0.0 3.2 0.00 0.00 0.00 82 1016.0
20260904072226 19 208 0.0 3.2 0.00 0.00 0.00 82 1015.9
20260904072207 19 205 1.6 4.8 0.00 0.00 0.00 82 1015.9
20260904072106 19 207 0.0 6.4 0.00 0.00 0.00 82 1016.0
20260904072006 19 196 0.0 6.4 0.00 0.00 0.00 82 1016.1
20260904071906 19 211 0.0 6.4 0.00 0.00 0.00 82 1015.9
20260904071806 19 205 0.0 6.4 0.00 0.00 0.00 82 1015.8
20260904071727 19 206 0.0 6.4 0.00 0.00 0.00 82 1015.8
20260904071706 19 208 0.0 9.7 0.00 0.00 0.00 82 1015.8
20260904071642 19 203 0.0 9.7 0.00 0.00 0.00 82 1016.2
20260904071626 19 205 0.0 9.7 0.00 0.00 0.00 82 1015.9
20260904071306 18 201 0.0 9.7 0.00 0.00 0.00 82 1016.0
20260904071226 18 218 3.2 9.7 0.00 0.00 0.00 82 1016.0
20260904071206 18 196 0.0 9.7 0.00 0.00 0.00 82 1016.0
20260904071054 19 199 1.6 9.7 0.00 0.00 0.00 82 1016.0
20260904070954 19 227 3.2 9.7 0.00 0.00 0.00 82 1015.9
20260904070854 19 204 1.6 9.7 0.00 0.00 0.00 82 1016.0
20260904070755 19 200 0.0 9.7 0.00 0.00 0.00 81 1015.7
20260904070725 19 239 4.8 9.7 0.00 0.00 0.00 81 1015.7
20260904070653 19 195 0.0 9.7 0.00 0.00 0.00 82 1015.9
20260904070553 19 198 0.0 9.7 0.00 0.00 0.00 82 1015.9
20260904070455 19 196 0.0 9.7 0.00 0.00 0.00 82 1015.9
20260904070354 19 195 0.0 9.7 0.00 0.00 0.00 82 1015.9
20260904070328 18 200 0.0 4.8 0.00 0.00 0.00 82 1016.0
20260904070322 18 191 0.0 4.8 0.00 0.00 0.00 83 1016.0
20260904070316 19 206 0.0 9.7 0.00 0.00 0.00 82 1015.8
20260904070301 19 191 0.0 9.7 0.00 0.00 0.00 82 1015.8
20260904070252 19 198 0.0 9.7 0.00 0.00 0.00 82 1015.7
20260904070237 19 204 0.0 9.7 0.00 0.00 0.00 81 1016.0
20260904070000 19 226 6.4 9.7 0.00 0.00 0.00 81 1015.7
20260904065943 19 203 3.2 4.8 0.00 0.00 0.00 81 1015.8
20260904065927 19 221 3.2 4.8 0.00 0.00 0.00 81 1015.8
20260904065918 19 208 3.2 4.8 0.00 0.00 0.00 81 1015.9
20260904065902 19 200 1.6 4.8 0.00 0.00 0.00 81 1015.8
20260904065847 19 209 1.6 4.8 0.00 0.00 0.00 81 1016.0
20260904065830 19 197 0.0 4.8 0.00 0.00 0.00 82 1015.8
20260904065343 18 187 0.0 4.8 0.00 0.00 0.00 82 1016.0
20260904065327 18 206 1.6 4.8 0.00 0.00 0.00 83 1016.0
20260904065311 18 231 3.2 4.8 0.00 0.00 0.00 83 1015.9
20260904065255 18 190 0.0 4.8 0.00 0.00 0.00 83 1016.1
20260904065240 18 244 0.0 4.8 0.00 0.00 0.00 83 1016.0
20260904065010 18 196 0.0 6.4 0.00 0.00 0.00 83 1015.8
20260904064954 18 191 1.6 6.4 0.00 0.00 0.00 83 1015.8
20260904064227 18 205 0.0 6.4 0.00 0.00 0.00 84 1015.8
20260904064155 18 174 0.0 6.4 0.00 0.00 0.00 84 1016.0
20260904064054 18 188 0.0 6.4 0.00 0.00 0.00 84 1016.1
20260904063954 18 196 0.0 6.4 0.00 0.00 0.00 84 1016.0
20260904063854 18 181 0.0 6.4 0.00 0.00 0.00 84 1015.9
20260904063754 18 210 0.0 6.4 0.00 0.00 0.00 84 1016.0
20260904063727 18 203 1.6 6.4 0.00 0.00 0.00 84 1016.0
20260904063654 18 186 0.0 6.4 0.00 0.00 0.00 84 1015.9
20260904063553 18 202 3.2 6.4 0.00 0.00 0.00 84 1016.0
20260904063455 18 203 0.0 6.4 0.00 0.00 0.00 84 1015.9
20260904063354 18 214 4.8 6.4 0.00 0.00 0.00 84 1015.8
20260904063337 18 200 0.0 3.2 0.00 0.00 0.00 84 1015.9
20260904063323 18 206 0.0 3.2 0.00 0.00 0.00 84 1015.9
20260904063314 18 206 1.6 3.2 0.00 0.00 0.00 84 1015.8
20260904062954 18 184 0.0 3.2 0.00 0.00 0.00 84 1016.0
20260904062855 18 208 0.0 3.2 0.00 0.00 0.00 84 1015.8
20260904062754 18 204 1.6 3.2 0.00 0.00 0.00 84 1015.8
20260904062726 18 190 0.0 3.2 0.00 0.00 0.00 84 1015.8
20260904062654 18 203 1.6 3.2 0.00 0.00 0.00 84 1015.8
20260904062554 18 185 0.0 3.2 0.00 0.00 0.00 84 1015.8
20260904062454 18 200 0.0 4.8 0.00 0.00 0.00 84 1015.8
20260904062354 18 199 0.0 4.8 0.00 0.00 0.00 85 1016.0
20260904062254 17 195 0.0 4.8 0.00 0.00 0.00 84 1015.9
20260904062226 17 191 0.0 4.8 0.00 0.00 0.00 84 1015.9
20260904062154 17 178 0.0 4.8 0.00 0.00 0.00 85 1016.0
20260904062053 17 200 0.0 4.8 0.00 0.00 0.00 85 1015.9
20260904061954 17 205 1.6 4.8 0.00 0.00 0.00 85 1015.7
20260904061855 17 201 0.0 4.8 0.00 0.00 0.00 85 1016.0
20260904061753 17 197 0.0 4.8 0.00 0.00 0.00 85 1015.7
20260904061726 17 202 0.0 4.8 0.00 0.00 0.00 85 1015.7
20260904061654 17 204 0.0 4.8 0.00 0.00 0.00 85 1015.8
20260904061554 17 216 3.2 4.8 0.00 0.00 0.00 85 1015.9
20260904061454 17 227 0.0 4.8 0.00 0.00 0.00 85 1015.9
20260904061354 17 200 0.0 4.8 0.00 0.00 0.00 85 1015.9
20260904061254 17 181 0.0 4.8 0.00 0.00 0.00 85 1015.9
20260904061226 17 188 0.0 4.8 0.00 0.00 0.00 85 1015.9
20260904061154 17 187 0.0 4.8 0.00 0.00 0.00 85 1015.8
20260904061054 17 196 0.0 4.8 0.00 0.00 0.00 85 1015.8
20260904060954 17 231 1.6 1.6 0.00 0.00 0.00 85 1015.8
20260904060854 17 195 0.0 1.6 0.00 0.00 0.00 85 1015.6
20260904060754 17 201 0.0 1.6 0.00 0.00 0.00 85 1015.7
20260904060727 17 208 0.0 1.6 0.00 0.00 0.00 85 1015.7
20260904060654 17 206 1.6 1.6 0.00 0.00 0.00 85 1015.8
20260904060555 17 191 0.0 1.6 0.00 0.00 0.00 85 1016.0
20260904060454 17 201 0.0 1.6 0.00 0.00 0.00 85 1015.8
20260904060354 17 212 1.6 1.6 0.00 0.00 0.00 85 1015.8
20260904060254 17 199 0.0 1.6 0.00 0.00 0.00 85 1015.7
20260904060226 17 200 0.0 1.6 0.00 0.00 0.00 85 1015.7
20260904060154 17 200 0.0 1.6 0.00 0.00 0.00 85 1015.7
20260904060053 17 193 0.0 1.6 0.00 0.00 0.00 85 1015.8
20260904055955 17 192 0.0 1.6 0.00 0.00 0.00 85 1015.8
20260904055854 17 195 0.0 1.6 0.00 0.00 0.00 85 1015.7
20260904055754 17 195 0.0 1.6 0.00 0.00 0.00 85 1015.8
20260904055726 17 196 0.0 1.6 0.00 0.00 0.00 85 1015.8
20260904055656 17 193 0.0 1.6 0.00 0.00 0.00 86 1015.9
20260904055554 17 199 0.0 1.6 0.00 0.00 0.00 86 1015.8
20260904055454 17 202 0.0 3.2 0.00 0.00 0.00 86 1016.0
20260904055354 17 191 0.0 3.2 0.00 0.00 0.00 86 1015.8
20260904055328 17 196 0.0 3.2 0.00 0.00 0.00 86 1015.9
20260904055315 17 201 0.0 3.2 0.00 0.00 0.00 86 1015.9
20260904055306 17 211 0.0 3.2 0.00 0.00 0.00 86 1015.8
20260904055251 17 188 0.0 3.2 0.00 0.00 0.00 86 1015.9
20260904055015 17 204 0.0 4.8 0.00 0.00 0.00 86 1015.7
20260904054726 17 196 0.0 4.8 0.00 0.00 0.00 86 1015.6
20260904054654 17 191 0.0 4.8 0.00 0.00 0.00 86 1015.8
20260904054554 17 196 0.0 4.8 0.00 0.00 0.00 86 1015.7
20260904054454 17 198 0.0 4.8 0.00 0.00 0.00 86 1015.5
20260904054354 17 202 0.0 6.4 0.00 0.00 0.00 86 1015.4
20260904054254 17 196 0.0 6.4 0.00 0.00 0.00 86 1015.6
20260904054226 17 203 0.0 6.4 0.00 0.00 0.00 86 1015.6
20260904054154 17 203 0.0 6.4 0.00 0.00 0.00 86 1015.6
20260904054054 17 203 0.0 6.4 0.00 0.00 0.00 86 1015.6
20260904053954 17 196 0.0 6.4 0.00 0.00 0.00 86 1015.5
20260904053938 17 195 0.0 11.3 0.00 0.00 0.00 86 1015.6
20260904053922 17 191 0.0 11.3 0.00 0.00 0.00 86 1015.5
20260904053907 17 205 0.0 11.3 0.00 0.00 0.00 86 1015.5
20260904053635 17 214 3.2 11.3 0.00 0.00 0.00 86 1015.4
20260904053627 17 196 0.0 11.3 0.00 0.00 0.00 86 1015.5
20260904053611 17 205 4.8 11.3 0.00 0.00 0.00 86 1015.4
20260904053555 17 209 4.8 11.3 0.00 0.00 0.00 86 1015.5
20260904053540 17 201 0.0 11.3 0.00 0.00 0.00 86 1015.4
20260904053314 17 200 3.2 11.3 0.00 0.00 0.00 86 1015.5
20260904052955 17 229 3.2 4.8 0.00 0.00 0.00 86 1015.5
20260904052854 17 207 0.0 6.4 0.00 0.00 0.00 86 1015.4
20260904052755 17 215 0.0 6.4 0.00 0.00 0.00 85 1015.6
20260904052725 17 206 0.0 6.4 0.00 0.00 0.00 85 1015.6
20260904052656 17 204 0.0 6.4 0.00 0.00 0.00 86 1015.5
20260904052554 17 204 0.0 6.4 0.00 0.00 0.00 85 1015.6
20260904052530 17 180 0.0 6.4 0.00 0.00 0.00 85 1015.6
20260904052514 17 207 0.0 6.4 0.00 0.00 0.00 85 1015.5
20260904052226 17 200 0.0 6.4 0.00 0.00 0.00 85 1015.5
20260904052154 17 198 0.0 6.4 0.00 0.00 0.00 85 1015.6
20260904052055 17 206 0.0 6.4 0.00 0.00 0.00 85 1015.7
20260904052027 17 208 0.0 3.2 0.00 0.00 0.00 85 1015.8
20260904052019 17 198 0.0 6.4 0.00 0.00 0.00 85 1015.7
20260904052002 17 200 0.0 3.2 0.00 0.00 0.00 85 1015.6
20260904051945 17 204 0.0 3.2 0.00 0.00 0.00 85 1015.8
20260904051655 17 206 0.0 3.2 0.00 0.00 0.00 85 1015.7
20260904051633 17 205 0.0 3.2 0.00 0.00 0.00 86 1015.6
20260904051624 17 198 0.0 3.2 0.00 0.00 0.00 85 1015.4
20260904051609 17 208 1.6 3.2 0.00 0.00 0.00 85 1015.6
20260904051552 17 210 0.0 3.2 0.00 0.00 0.00 85 1015.5
20260904051536 17 234 0.0 3.2 0.00 0.00 0.00 85 1015.7
20260904051523 17 204 0.0 3.2 0.00 0.00 0.00 85 1015.7
20260904051514 17 204 0.0 3.2 0.00 0.00 0.00 85 1015.6
20260904051459 17 207 1.6 3.2 0.00 0.00 0.00 85 1015.5
20260904051223 17 210 3.2 3.2 0.00 0.00 0.00 85 1015.5
20260904051207 17 197 0.0 3.2 0.00 0.00 0.00 85 1015.5
20260904051153 17 205 0.0 3.2 0.00 0.00 0.00 85 1015.5
20260904050923 17 201 0.0 1.6 0.00 0.00 0.00 85 1015.5
20260904050907 17 197 0.0 1.6 0.00 0.00 0.00 86 1015.8
20260904050852 17 201 0.0 1.6 0.00 0.00 0.00 86 1015.6
20260904050351 17 204 0.0 3.2 0.00 0.00 0.00 86 1015.6
20260904050336 17 205 0.0 3.2 0.00 0.00 0.00 86 1015.6
20260904045754 17 205 0.0 6.4 0.00 0.00 0.00 86 1015.5
20260904045727 17 204 0.0 6.4 0.00 0.00 0.00 86 1015.5
20260904045656 17 167 0.0 6.4 0.00 0.00 0.00 86 1015.4
20260904045555 17 184 0.0 6.4 0.00 0.00 0.00 86 1015.8
20260904045455 17 197 0.0 6.4 0.00 0.00 0.00 86 1015.6
20260904045437 17 206 0.0 6.4 0.00 0.00 0.00 86 1015.6
20260904045421 17 200 0.0 6.4 0.00 0.00 0.00 86 1015.6
20260904045408 17 205 0.0 6.4 0.00 0.00 0.00 86 1015.6
20260904045055 17 220 0.0 6.4 0.00 0.00 0.00 86 1015.4
20260904044956 17 212 0.0 6.4 0.00 0.00 0.00 86 1015.5
20260904044941 17 205 1.6 6.4 0.00 0.00 0.00 86 1015.5
20260904044925 17 222 3.2 4.8 0.00 0.00 0.00 86 1015.7
20260904044909 17 235 1.6 4.8 0.00 0.00 0.00 86 1015.7
20260904044554 17 212 3.2 4.8 0.00 0.00 0.00 86 1015.7
20260904044454 17 204 0.0 3.2 0.00 0.00 0.00 86 1015.7
20260904044355 17 206 0.0 3.2 0.00 0.00 0.00 86 1015.7
20260904044254 17 206 0.0 3.2 0.00 0.00 0.00 86 1016.0
20260904044226 17 207 0.0 3.2 0.00 0.00 0.00 86 1016.0
20260904044155 17 205 0.0 3.2 0.00 0.00 0.00 86 1016.0
20260904044054 17 194 0.0 3.2 0.00 0.00 0.00 86 1016.0
20260904043955 17 202 0.0 1.6 0.00 0.00 0.00 86 1016.1
20260904043854 17 195 0.0 1.6 0.00 0.00 0.00 86 1015.9
20260904043832 16 195 1.6 3.2 0.00 0.00 0.00 86 1015.9
20260904043828 16 228 0.0 3.2 0.00 0.00 0.00 86 1015.5
20260904043805 16 207 0.0 1.6 0.00 0.00 0.00 86 1016.1
20260904043756 16 199 0.0 1.6 0.00 0.00 0.00 86 1016.0
20260904043740 16 197 0.0 1.6 0.00 0.00 0.00 86 1016.0
20260904043725 16 281 0.0 3.2 0.00 0.00 0.00 86 1015.8
20260904043708 16 205 0.0 3.2 0.00 0.00 0.00 86 1016.0
20260904043652 16 195 1.6 3.2 0.00 0.00 0.00 86 1015.9
20260904043425 16 204 0.0 3.2 0.00 0.00 0.00 86 1015.8
20260904043149 16 200 0.0 3.2 0.00 0.00 0.00 86 1015.5
20260904043133 16 195 0.0 3.2 0.00 0.00 0.00 86 1015.7
20260904043118 16 197 0.0 3.2 0.00 0.00 0.00 86 1015.5
20260904042849 16 204 0.0 3.2 0.00 0.00 0.00 86 1015.8
20260904042614 16 186 0.0 3.2 0.00 0.00 0.00 86 1015.7
20260904042254 16 205 1.6 3.2 0.00 0.00 0.00 86 1015.7
20260904042227 16 204 0.0 3.2 0.00 0.00 0.00 86 1015.7
20260904042153 16 205 0.0 3.2 0.00 0.00 0.00 86 1015.7
20260904042054 16 204 0.0 3.2 0.00 0.00 0.00 86 1015.7
20260904042027 16 206 0.0 3.2 0.00 0.00 0.00 86 1015.5
20260904042019 16 207 0.0 3.2 0.00 0.00 0.00 86 1015.6
20260904042003 16 212 0.0 3.2 0.00 0.00 0.00 86 1015.7
20260904041948 16 203 0.0 3.2 0.00 0.00 0.00 86 1015.5
20260904041654 16 207 0.0 3.2 0.00 0.00 0.00 86 1015.6
20260904041554 16 206 0.0 3.2 0.00 0.00 0.00 86 1015.6
20260904041454 16 199 0.0 3.2 0.00 0.00 0.00 86 1015.7
20260904041354 16 207 0.0 3.2 0.00 0.00 0.00 86 1015.8
20260904041338 16 199 0.0 3.2 0.00 0.00 0.00 86 1015.6
20260904041324 16 210 0.0 3.2 0.00 0.00 0.00 86 1015.6
20260904041315 16 196 0.0 3.2 0.00 0.00 0.00 86 1015.5
20260904041030 16 206 0.0 4.8 0.00 0.00 0.00 86 1015.6
20260904041014 16 196 0.0 4.8 0.00 0.00 0.00 86 1015.5
20260904040726 16 209 1.6 4.8 0.00 0.00 0.00 86 1015.7
20260904040654 16 196 0.0 4.8 0.00 0.00 0.00 86 1015.5
20260904040554 16 206 0.0 4.8 0.00 0.00 0.00 86 1015.5
20260904040530 16 203 0.0 4.8 0.00 0.00 0.00 86 1015.5
20260904040513 16 205 0.0 4.8 0.00 0.00 0.00 86 1015.4
20260904040227 16 204 0.0 4.8 0.00 0.00 0.00 86 1015.6
20260904040153 16 231 0.0 1.6 0.00 0.00 0.00 86 1015.6
20260904040055 16 205 0.0 1.6 0.00 0.00 0.00 86 1015.6
20260904035953 16 200 0.0 1.6 0.00 0.00 0.00 86 1015.5
20260904035855 16 201 0.0 3.2 0.00 0.00 0.00 86 1015.6
20260904035727 16 209 0.0 3.2 0.00 0.00 0.00 86 1015.8
20260904035656 16 207 0.0 3.2 0.00 0.00 0.00 86 1015.8
20260904035616 16 208 0.0 3.2 0.00 0.00 0.00 85 1015.8
20260904035607 16 209 0.0 3.2 0.00 0.00 0.00 86 1015.6
20260904035552 16 206 0.0 3.2 0.00 0.00 0.00 86 1015.7
20260904035536 16 201 0.0 3.2 0.00 0.00 0.00 85 1015.6
20260904035257 16 231 0.0 3.2 0.00 0.00 0.00 85 1015.8
20260904035248 16 205 0.0 3.2 0.00 0.00 0.00 85 1016.0
20260904035221 16 205 0.0 3.2 0.00 0.00 0.00 85 1015.8
20260904034946 16 205 0.0 3.2 0.00 0.00 0.00 85 1015.8
20260904034654 16 207 0.0 3.2 0.00 0.00 0.00 85 1015.8
20260904034553 16 202 0.0 1.6 0.00 0.00 0.00 85 1015.8
20260904034454 16 207 0.0 1.6 0.00 0.00 0.00 85 1015.7
20260904034354 16 197 0.0 1.6 0.00 0.00 0.00 85 1016.0
20260904034326 16 207 0.0 3.2 0.00 0.00 0.00 85 1015.7
20260904034318 16 211 0.0 1.6 0.00 0.00 0.00 85 1015.6
20260904034305 16 200 0.0 1.6 0.00 0.00 0.00 85 1015.6
20260904034256 16 204 0.0 1.6 0.00 0.00 0.00 85 1015.9
20260904034240 16 203 0.0 1.6 0.00 0.00 0.00 85 1015.9
20260904034225 16 206 0.0 1.6 0.00 0.00 0.00 85 1015.9
20260904034211 16 195 0.0 1.6 0.00 0.00 0.00 85 1016.1
20260904033935 16 207 0.0 6.4 0.00 0.00 0.00 85 1016.1
20260904033926 16 206 0.0 9.7 0.00 0.00 0.00 85 1015.9
20260904033651 16 206 0.0 9.7 0.00 0.00 0.00 85 1016.1
20260904033635 16 205 0.0 9.7 0.00 0.00 0.00 85 1015.7
20260904033620 16 200 0.0 9.7 0.00 0.00 0.00 85 1015.7
20260904033606 16 202 0.0 9.7 0.00 0.00 0.00 85 1015.7
20260904033557 16 210 0.0 9.7 0.00 0.00 0.00 85 1015.7
20260904033541 16 208 0.0 9.7 0.00 0.00 0.00 85 1015.7
20260904033525 16 202 0.0 9.7 0.00 0.00 0.00 85 1015.8
20260904033248 16 215 4.8 9.7 0.00 0.00 0.00 85 1015.7